WHS Acquisition Forecast


As part of WHS’s initiative to encourage competition, this procurement forecast should allow companies to spend more time bidding and less time searching for procurement opportunities. The information in the forecast is based on the best information available at the time of posting, is intended for planning purposes only, and does not constitute a commitment by WHS to buy the described supplies and services.

Please note that the forecast contains information from the current contract. This information should NOT be relied upon for proposal preparation. Contractors are cautioned to prepare their proposal in accordance with the solicitation when it is released.

Have questions? Contact the Office of Small Business Programs


Estimated/ Ultimate Completion Date Contract Number Reference Indefinite Delivery Vehicle Number Description of Requirement Contracting Officer Vendor Name CAGE Code NAICS Code Base and All Options Value (Total Contract Value) Type of Set Aside
9/1/2024 HQ003420F0804 N6600118A0010 NETWORK MAPPING & INTERNET PROTOCOL (IP) RANGE COMPARISON OF EXPANSE SOFTWARE DATA AUBREY J. MCKINNEY CARAHSOFT TECHNOLOGY CORP. 1P3C5 511210 $2,039,986.56 N/A
9/5/2024 HQ003423F0335 HQ003422D0026 DESIGN-BID-BUILD CONSTRUCTION OF TOTAL MAXIMUM DAILY LOAD AND PAVING FOR OLD EAST LOADING DOCK KYLE R BLAKE PRESTIGE DEVELOPMENT SERVICES INC. 5NP69 237310 $1,437,121.00 N/A
9/6/2024 HQ003423P0175 N/A TOLL MANAGEMENT SERVICE MICHELE Y. MAXWELL BESTPASS, INC. 7VDQ4 488490 $41,256.16 NO SET ASIDE USED.
9/7/2024 HQ003423F0573 NNG15SC20B DELL LATITUDE 7640 LAPTOP RONICA L SHELTON STERLING COMPUTERS CORPORATION 06AP0 334111 $72,175.32 WOMEN OWNED SMALL BUSINESS
9/7/2024 HQ003423F0342 HQ003420D0002 SOFTWARE AS SERVICE PLATFORM Rashida D Webb POPLICUS INCORPORATED 7DR83 541990 $3,300,000.00 N/A
9/7/2024 HQ003423F0458 HQ003419D0020 ANNUAL MAINTENANCE AGREEMENT (ITEMISER) DAVID S. DOTY RAPISCAN SYSTEMS, INC. 04HU6 334511 $117,206.75 N/A
9/10/2024 HQ003424F0113 HQ003421D0030 SERVICE REPAIRS ON COOLING TOWER ALVINA WOODSON SERVICE SOURCE, INC 2Z880 561210 $9,635.00 N/A
9/12/2024 HQ003423F0574 HQ003422A0015 DRUG DEMAND MATERIALS AND EQUIPMENT KEALON D. WALLACE AGILENT TECHNOLOGIES, INC. 0YSC6 334516 $2,257,192.15 NO SET ASIDE USED.
9/12/2024 HQ003423P0195 N/A FOOTPRINTS ADDITIONAL CONCURRENT USER MICHELE Y. MAXWELL NEW TECH SOLUTIONS, INC. 1QN24 541519 $93,402.54 SMALL BUSINESS SET ASIDE - TOTAL
9/12/2024 HQ003422F0396 HQ003419D0003 SYSTEMS ENGINEERING RESEARCH CENTER RESEARCH TASK 1070 JOELLE FAUCHER STEVENS INSTITUTE OF TECHNOLOGY (INC) 7069 541715 $4,453,414.24 N/A
9/12/2024 HQ003423C0107 N/A SOLIC STUDY Rashida D Webb ATLANTIC COUNCIL OF THE UNITED STATES, INC., THE 3S633 541720 $410,321.92 NO SET ASIDE USED.
9/12/2024 HQ003419F0589 GS35F0461Y CCPO SUPPORT SERVICES BRANDISS R. SMITH KONIAG TECHNOLOGY SOLUTIONS, INC 3WMJ3 541511 $51,917,107.99 N/A
9/13/2024 HQ003419F0600 GS35F267DA FLEXERA BDNA-TECHNOPENDIA SOFTWARE SUPPORT AND MAINTENANCE John w. Crawford DLT SOLUTIONS, LLC 0S0H9 541519 $307,569.17 N/A
9/13/2024 HQ003422F0377 HQ003418A0006 DEFENSE ACQUISITION UNIVERSITY (DAU) ACQUISITION LEARNING MODEL (ALM) SUPPORT MARIA M. FIGUEROA MPF FEDERAL LLC 6SCJ2 541611 $5,815,619.33 N/A
9/13/2024 HQ003423F0514 N6600119D0019 MICROSOFT UNIFIED SUPPORT COURTNEY APPLEWHITE MICROSOFT CORPORATION 60128 541511 $124,260.00 N/A
9/13/2024 HQ00342490004 N/A ENHANCED GEOTHERMAL SYSTEMS Chersharon Y. King (OTA) FERVO ENERGY COMPANY 80AK3 N/A $394,892.00 N/A
9/14/2024 HQ003424F0090 HQ003423D0031 LAW ENFORCEMENT DUTY GEAR EQUIPMENT YOLNIE MERRIWEATHER EXTREME TACTICAL INC 4R8G0 332999 $93,699.04 N/A
9/14/2024 HQ003423F0509 HQ003423D0016 DEFENSE GOVERNANCE TRAINING SERVICE COURTNEY APPLEWHITE HII DEFENSE AND FEDERAL SOLUTIONS INC 0MWW4 611710 $195,041.21 N/A
9/14/2024 HQ003423F0504 HQ003423D0016 RULE OF LAW COURSE DEVELOPMENT SERVICES COURTNEY APPLEWHITE HII DEFENSE AND FEDERAL SOLUTIONS INC 0MWW4 611710 $1,215,270.63 N/A
9/14/2024 HQ003423F0523 NNG15SC89B SOLARWINDS SUBSCRIPTION RENEWAL COURTNEY APPLEWHITE STERLING COMPUTERS CORPORATION 06AP0 541519 $33,065.43 N/A
9/14/2024 HQ003423F0525 HQ003423D0016 WOMEN PEACE AND SECURITY WORKSHOP COURTNEY APPLEWHITE HII DEFENSE AND FEDERAL SOLUTIONS INC 0MWW4 611710 $54,295.73 N/A
9/14/2024 HQ003420C0144 N/A MANAGEMENT ANALYST SUPPORT KAREN A. SMITH ENG SOLUTIONS INC 6Q0V1 541611 $559,871.16 8(A) SOLE SOURCE
9/14/2024 HQ003422C0021 N/A MANAGEMENT ANALYSIS II KAREN A. SMITH ENG SOLUTIONS INC 6Q0V1 541611 $440,553.04 8(A) SOLE SOURCE
9/14/2024 HQ003423P0203 N/A SINGAPORE AIR SHOW 2024 - TRADE SHOW EXHIBIT ANDREA M MONTGOMERY KALLMAN WORLDWIDE INC 1LG43 561920 $162,600.00 NO SET ASIDE USED.
9/14/2024 HQ003423P0205 N/A INTERNATIONAL AIR AND SPACE FAIR FERIA INTERNACIONAL DEL AIRE Y DEL ESPACIO (FIDAE) 2024 SHOW SPACE RENTAL ANDREA M MONTGOMERY KALLMAN WORLDWIDE INC 1LG43 561920 $78,260.00 NO SET ASIDE USED.
9/14/2024 HQ003423F0558 HQ003423D0016 CYBER CHALLENGES COURSE DEVELOPMENT COURTNEY APPLEWHITE HII DEFENSE AND FEDERAL SOLUTIONS INC 0MWW4 611710 $50,779.23 N/A
9/14/2024 HQ003424F0090 HQ003423D0031 LAW ENFORCEMENT DUTY GEAR EQUIPMENT YOLNIE MERRIWEATHER EXTREME TACTICAL INC 4R8G0 332999 $93,699.04 N/A
9/15/2024 HQ00342290013 N/A PROVING GROUNDS PROTOTYPE Chersharon Y. King DARK WOLF SOLUTIONS LLC 70SD2 N/A $3,824,000.00 N/A
9/15/2024 HQ00342290014 N/A DEFENSE INNOVATION UNIT PROVING GROUNDS PROTOTYPE PROJECT PETER M. POLIZZI SECOND FRONT SYSTEMS, INC. 754R2 N/A $3,783,925.00 N/A
9/15/2024 HQ003419F0625 GS35F521BA KODAK I5200 SCANNER CARE KITS CHRISSANDRA SMITH E-LOGIC INC. 4QTF4 334111 $45,805.20 N/A
9/15/2024 HQ003423F0508 N6600120A0022 SPLUNK SOFTWARE LICENSES AND SUPPORT KELLIE BUCK CARAHSOFT TECHNOLOGY CORP. 1P3C5 511210 $418,072.98 N/A
9/17/2024 HQ003420F0033 HQ003419D0006 SMART SENSOR DEVELOPMENT STEVIE A. KREKELBERG JOHNS HOPKINS UNIVERSITY APPLIED PHYSICS LABORATORY LLC, THE 88898 541990 $94,236,303.32 N/A
9/17/2024 HQ003421C0004 N/A SMALL BUSINESS INNOVATIVE RESEARCH SERVICES (SBIR) PHASE II 02-1788 PETER M. POLIZZI PRINCETON INFRARED TECHNOLOGIES, INC. 6VLQ3 541715 $1,619,767.00 SMALL BUSINESS SET ASIDE - TOTAL
9/17/2024 HQ003423F0559 HQ003421A0012 MULTIFACTOR AUTHENTICATION SERVICES RONICA L SHELTON LASTWALL CORP. 7KWJ4 518210 $342,750.00 NO SET ASIDE USED.
9/17/2024 HQ003423F0591 HQ003420D0002 SOFTWARE AS A SERVICE (SAAS) PLATFORM LICENSE AUBREY J. MCKINNEY POPLICUS INCORPORATED 7DR83 541990 $1,050,000.00 N/A
9/17/2024 HQ003423F0603 GS35F0199R JOINT AUTOMATED BOOKING SYSTEM HARDWARE AND SOFTWARE ITEMS DAVID S. DOTY HID GLOBAL CORP 1SGK1 541511 $9,834.04 N/A
9/17/2024 HQ003423P0199 N/A PROJECT DASHBOARD DEVELOPMENT COURTNEY APPLEWHITE POLARCTIC LLC 85J03 541690 $105,000.00 NO SET ASIDE USED.
9/18/2024 HQ003422C0083 N/A SMALL BUSINESS INNOVATION RESEARCH (SBIR) ON ULTRAFAST ROBUST OPTICAL CORRELATOR Ashley D. Maddox INTELLISENSE SYSTEMS INC 7Z4Y5 541715 $1,499,995.09 SMALL BUSINESS SET ASIDE - TOTAL
9/18/2024 HQ003419C0142 N/A SECURITY SUPPORT SERVICES PAMELA W. ODHIAMBO AZIMUTH CORPORATION 1VA28 541611 $932,976.00 SMALL BUSINESS SET ASIDE - TOTAL
9/18/2024 HQ003423F0330 HQ003422D0004 FREEDOM OF INFORMATION ACT/PRIVACY ACT SUPPORT SERVICES RONICA L SHELTON QUALX CORPORATION 5Q8Y1 541611 $4,745,071.04 N/A
9/19/2024 HQ0034219CA09 N/A OTHER TRANSACTION AGREEMENT FOR ENGINEERING/TECHNICAL SERVICES KIMBERLY E. KOZLOWSKI TEXAS A&M ENGINEERING EXPERIMENT STATION 0EBC6 N/A $1,499,419.00 N/A
9/19/2024 HQ003423F0641 03310319D0072 VIRTUAL ACQUISITION OFFICE (VAO) SUBSCRIPTION SERVICES RONICA L SHELTON COMPUSEARCH VIRTUAL ACQUISITION OFFICE LLC 7UCQ8 519190 $147,870.97 N/A
9/19/2024 HQ003423F0680 HQ003422D0002 INTEGRATED SECURITY SERVICES CONTRACT - INSTALL CAMERAS KIM M. ROBINSON-LEACH M. C. DEAN, INC. 3K773 561621 $762,950.00 N/A
9/19/2024 HQ003423F0651 HQ003420D0002 SOFTWARE AS A SERVICE PLATFORM LICENSE Rashida D Webb POPLICUS INCORPORATED 7DR83 541990 $750,000.00 N/A
9/20/2024 HQ003423F0598 HQ003420D0002 SOFTWARE AS A SERVICE (SAAS) PLATFORM LICENSE AUBREY J. MCKINNEY POPLICUS INCORPORATED 7DR83 541990 $500,000.00 N/A
9/20/2024 HQ003423F0467 HQ003419D0003 SYSTEMS ENGINEERING RESEARCH CENTER TASK DOUGLAS J. BOORSTEIN STEVENS INSTITUTE OF TECHNOLOGY (INC) 7069 541715 $399,848.67 N/A
9/21/2024 HQ003423F0652 HQ003420D0002 SOFTWARE-AS-A-SERVICE PLATFORM LICENSES Rashida D Webb POPLICUS INCORPORATED 7DR83 541990 $6,690,000.00 N/A
9/21/2024 HQ003423F0655 HQ003420D0014 TECHNOLOGY AND PROGRAM MANAGEMENT SUPPORT, AS WELL AS RELATED IT EQUIPMENT. JACQUELINE G. VERRINE TALU, LLC 70U35 337127 $73,417.08 N/A
9/21/2024 HQ003423F0670 GS00F148GA PROJECT MANAGER SERVICES MARIA M. FIGUEROA MPF FEDERAL LLC 6SCJ2 541611 $263,104.00 N/A
9/22/2024 HQ003423F0589 HE125422A9000 COPIER MAINTENANCE AND REPAIR KELLIE BUCK OMNI BUSINESS SYSTEMS, INC. 0PZ31 532420 $149,053.00 N/A
9/22/2024 HQ003424F0060 HE125422A9000 COPIER MAINTENANCE AND REPAIR MICHELE Y. MAXWELL OMNI BUSINESS SYSTEMS, INC. 0PZ31 532420 $190,546.00 N/A
9/22/2024 HQ003423F0303 HQ003420D0013 ANNUAL INSPECTION PENTAGON ROOF KEISHA L. SIMMONS LJB INC 1KPW3 238990 $81,400.00 N/A
9/22/2024 HQ003421C0085 N/A LEADERSHIP RESEARCH ASSISTANT SUPPORT SERVICES KAREN A. SMITH MOHAN, SHANNON E 6XA96 541720 $349,826.76 SMALL BUSINESS SET ASIDE - TOTAL
9/22/2024 HQ003422C0100 N/A SEMICONDUCTOR MANUFACTURING STUDY STAS BLAUSHILD NATIONAL ACADEMY OF SCIENCES 1D969 541690 $850,000.00 NO SET ASIDE USED.
9/23/2024 HQ0034219CA10 N/A OTHER TRANSACTION AGREEMENT FOR IMPROVED METHODS FOR DEVELOPMENT OF AERODYNAMIC DATABASES ERIN P. ESLINGER TEXAS A&M ENGINEERING EXPERIMENT STATION 0EBC6 N/A $1,600,078.00 N/A
9/23/2024 HQ0034219CA12 N/A OTHER TRANSACTION AGREEMENT FOR THERMAL ENERGY HARVEST AND MANAGEMENT KIMBERLY E. KOZLOWSKI TEXAS A&M ENGINEERING EXPERIMENT STATION 0EBC6 N/A $1,507,752.00 N/A
9/23/2024 HQ0034219CA13 N/A OTHER TRANSACTION AGREEMENT FOR MODELING SIMULATION, AND TESTING OF SEPERATION EVENTS KIMBERLY E. KOZLOWSKI TEXAS A&M ENGINEERING EXPERIMENT STATION 0EBC6 N/A $1,558,924.00 N/A
9/23/2024 HQ0034219CA15 N/A OTHER TRANSACTION AGREEMENT FOR DEVELOPMENT OF COUPLED MACHINE LEARNING AND TOPOLOGY OPTIMIZATION PROCESSES KIMBERLY E. KOZLOWSKI TEXAS A&M ENGINEERING EXPERIMENT STATION 0EBC6 N/A $1,499,615.00 N/A
9/23/2024 HQ0034219CA16 N/A OTHER TRANSACTION AGREEMENT FOR DAMAGE MITIGATION AND EVOLUTION IN BLAST EXPLOSIVE FORMULATIONS KIMBERLY E. KOZLOWSKI TEXAS A&M ENGINEERING EXPERIMENT STATION 0EBC6 N/A $1,513,825.00 N/A
9/23/2024 HQ0034219CA17 N/A OTHER TRANSACTION AGREEMENT FOR DISRUPTIVE TECHNOLOGIES KIMBERLY E. KOZLOWSKI TEXAS A&M ENGINEERING EXPERIMENT STATION 0EBC6 N/A $1,529,392.00 N/A
9/23/2024 HQ0034219CA02 N/A OTHER TRANSACTION AGREEMENT (OTA) FOR NON-DESTRUCTIVE TESTING FOR JOINING AND SEALING TECHNOLOGIES Chersharon Y. King TEXAS A&M ENGINEERING EXPERIMENT STATION 0EBC6 N/A $1,500,000.00 N/A
9/23/2024 HQ0034219CA03 N/A OTHER TRANSACTION AGREEMENT FOR SEEKER AND SENSOR DEVELOPMENT KIMBERLY E. KOZLOWSKI TEXAS A&M ENGINEERING EXPERIMENT STATION 0EBC6 N/A $1,593,000.00 N/A
9/23/2024 HQ0034219CA04 N/A OTHER TRANSACTION AGREEMENT FOR ADDITIVELY MANUFACTURED COMPONENTS ERIN P. ESLINGER TEXAS A&M ENGINEERING EXPERIMENT STATION 0EBC6 N/A $1,545,536.00 N/A
9/23/2024 HQ0034219CA05 N/A OTHER TRANSACTION AGREEMENT FOR CONTROL METHODOLOGY FOR AERODYNAMIC STRUCTURES Chersharon Y. King TEXAS A&M ENGINEERING EXPERIMENT STATION 0EBC6 N/A $1,500,000.00 N/A
9/23/2024 HQ0034219CA06 N/A OTHER TRANSACTION AGREEMENT FOR ENGINEERING/TECHNICAL SERVICES KIMBERLY E. KOZLOWSKI TEXAS A&M ENGINEERING EXPERIMENT STATION 0EBC6 N/A $1,380,000.00 N/A
9/23/2024 HQ0034219CA07 N/A OTHER TRANSACTION AGREEMENT FOR ROBUST FEEDBACK CONTROL OF COUPLED INLET OPERABILITY KIMBERLY E. KOZLOWSKI TEXAS A&M ENGINEERING EXPERIMENT STATION 0EBC6 N/A $1,500,000.00 N/A
9/23/2024 HQ0034219CA08 N/A OTHER TRANSACTION AGREEMENT FOR ENGINEERING/TECHNICAL SERVICES KIMBERLY E. KOZLOWSKI TEXAS A&M ENGINEERING EXPERIMENT STATION 0EBC6 N/A $1,706,000.00 N/A
9/23/2024 HQ003423F0512 HQ003421A0008 CORNERSTONE ON DEMAND (CSOD) LICENSES MICHAEL KLINE CORNERSTONE ONDEMAND, INC. 33TM5 611420 $4,312,000.00 N/A
9/23/2024 HQ003423F0696 NNG15SC70B JIRA SOFTWARE MAINTENANCE SUPPORT ERIC DARBY DH TECHNOLOGIES, LLC 6XKC9 541519 $28,923.97 SMALL BUSINESS SET ASIDE - TOTAL
9/23/2024 HQ003423F0628 HQ003421D0030 BUILDING CONSTRUCTION, MAINTENANCE, AND REPAIR ALVINA WOODSON SERVICE SOURCE, INC 2Z880 561210 $1,158,266.82 N/A
9/24/2024 HQ003423F0682 NNG15SD24B MULTI-FUNCTION COLOR PRINTERS MICHELE Y. MAXWELL TECHANAX LLC 6SM10 541519 $104,229.12 SMALL BUSINESS SET ASIDE - TOTAL
9/24/2024 HQ003423F0689 GS28F0027V OFFICE FURNITURE STEPHENIE CHARLOT CORPORATE INTERIORS, INC. 0JSA7 337122 $71,634.47 SMALL BUSINESS SET ASIDE - TOTAL
9/24/2024 HQ003423C0132 N/A DATA ANALYTICS AND DATA ENGINEERING SERVICES KELLIE BUCK INFO NOW SOLUTIONS LLC 9AE40 541511 $2,278,539.96 8(A) SOLE SOURCE
9/24/2024 HQ003422F0024 NNG15SD76B VMWARE ENTERPRISE SOFTWARE LICENSE RENEWAL STAS BLAUSHILD ENTERPRISE TECHNOLOGY SOLUTIONS, INC. 62PR1 541519 $72,821.52 HUBZONE SET-ASIDE
9/25/2024 HQ003423C0128 N/A FINANCIAL OPERATIONS AND G-INVOICING SUPPORT SERVICES MONICA ALDA BURNS DEGROOT KONIAG PROFESSIONAL SERVICES, LLC 8H4J0 541611 $2,615,005.68 8(A) SOLE SOURCE
9/25/2024 HQ003423P0134 N/A FINANCIAL MANAGEMENT SERVICES KELLIE BUCK KADIAK LLC 7MX68 541990 $2,196,149.76 8(A) SOLE SOURCE
9/25/2024 HQ003423F0704 HQ003420D0002 SOFTWARE AS A SERVICE PLATFORM LICENSES Rashida D Webb POPLICUS INCORPORATED 7DR83 541990 $8,989,999.88 N/A
9/25/2024 HQ003423F0707 NNG15SC82B DOCUSIGN SOFTWARE AUBREY J. MCKINNEY NEW TECH SOLUTIONS, INC. 1QN24 541519 $163,216.34 SMALL BUSINESS SET ASIDE - TOTAL
9/25/2024 HQ003423F0577 HQ003419D0003 SYSTEMS ENGINEERING RESEARCH CENTER RESEARCH FOR TASK 1086. JOELLE FAUCHER STEVENS INSTITUTE OF TECHNOLOGY (INC) 7069 541715 $498,996.94 N/A
9/25/2024 HQ003423F0592 NNG15SD09B VEEAM SOFTWARE LICENSE AND MAINTENANCE JAMES CANADY III BAHFED CORP 6KZA1 541519 $76,298.00 SMALL BUSINESS SET ASIDE - TOTAL
9/26/2024 HQ003423F0674 NNG15SD26B GLOBAL LAW ENFORCEMENT DATABASE LICENSES MICHELE Y. MAXWELL THUNDERCAT TECHNOLOGY, LLC 50WM7 541519 $112,875.00 SMALL BUSINESS SET ASIDE - TOTAL
9/26/2024 HQ003421P0144 N/A DOMINKNOW | ONE SOFTWARE SUBSCRIPTION MICHAEL KLINE DOMINKNOW INC L0JD5 541519 $583,609.96 NO SET ASIDE USED.
9/26/2024 HQ003421F0358 NNG15SC70B F5 BIG-IP NETWORK PHYSICAL AND VIRTUAL HARDWARE AND ASSOCIATED SOFTWARE MAINTENANCE SUPPORT. MARIA M. FIGUEROA DH TECHNOLOGIES, LLC 6XKC9 541519 $124,065.38 N/A
9/26/2024 HQ003421F0493 GS35F0119Y CUSTOMER SUCCESS ARCHITECT CANDACE NOEL CARAHSOFT TECHNOLOGY CORP. 1P3C5 511210 $217,889.86 N/A
9/26/2024 HQ003419C0173 N/A PUBLICATIONS RESEARCH & WRITING SERVICES KAREN A. SMITH PHILLIPS, STEVEN E. 3R4L3 541720 $745,152.00 SMALL BUSINESS SET ASIDE - TOTAL
9/26/2024 HQ003419C0178 N/A NATIONAL GUARD YOUTH CHALLENGE PROGRAM (NGYCP) AND STARBASE PROGRAM LAWAN FERGUSON SPECTRUM GROUP MEMBERS LLC, THE 1S7X6 541611 $20,399,292.00 SMALL BUSINESS SET ASIDE - TOTAL
9/26/2024 HQ003419F0716 HQ003415A0031 RESOURCE MANAGEMENT AND AUDIT READINESS TRAINING AND ASSISTANCE AND INNOVATIVE READINESS TRAINING (IRT) SUPPORT SERVICES AUBREY J. MCKINNEY LOGISTICS MANAGEMENT INSTITUTE 2D675 541611 $12,423,258.64 N/A
9/27/2024 HQ003421F0514 NNG15SC27B MARKLOGIC ESSENTIAL ENTERPRISE SERVICES. ERIC DARBY CARAHSOFT TECHNOLOGY CORPORATION 1P3C5 541519 $272,140.74 N/A
9/27/2024 HQ003422C0110 N/A DEVELOPMENT OF HIGH THROUGHPUT PHOTONIC PROCESSOR FOR ARTIFICIAL INTELLIGENCE/MACHINE LEARNING (AI/ML) PROGRAMS Meghan T. Meyers INTELLIGENT FIBER OPTIC SYSTEMS CORP 02QJ7 541715 $1,499,292.81 SMALL BUSINESS SET ASIDE - TOTAL
9/27/2024 HQ003422C0102 N/A SMALL BUSINESS INNOVATION RESEARCH (SBIR) ON SECURE AND COVERT NON-ATTRIBUTABLE ROBUST INFORMATION EXFILTRATION (SCARIE) Christina N Mazzoli STEALTH SOFTWARE TECHNOLOGIES, INC. 4LT47 541715 $1,499,997.79 SMALL BUSINESS SET ASIDE - TOTAL
9/27/2024 HQ003422C0104 N/A ARCHITECTURAL ASSESSMENT REVIEW OF THE FACILITIES RELATED CONTROL SYSTEM NETWORK WITHIN FACILITIES SERVICE DIRECTORATE KEISHA L. SIMMONS SENECA GLOBAL SERVICES LLC 5B1S6 511210 $1,296,562.10 8(A) SOLE SOURCE
9/27/2024 HQ003422C0127 N/A PROCESS IMPROVEMENT, INNOVATION, AND TRAINING SUPPORT SERVICES JACQUELINE G. VERRINE PREMIER ENTERPRISE SOLUTIONS, LLC 6RM79 541611 $3,001,874.47 8(A) SOLE SOURCE
9/27/2024 HQ00342290010 N/A HYBRID SPACE ARCHITECTURE (HSA) - MS AZURE PETER M. POLIZZI MICROSOFT CORPORATION 60128 N/A $9,330,809.00 N/A
9/27/2024 HQ00342290011 N/A DEFENSE INNOVATION UNIT HYBRID SPACE ARCHITECTURE PROTOTYPE PROJECT Chersharon Y. King SPIDEROAK MISSION SYSTEMS LLC 8FLM1 N/A $1,887,092.10 N/A
9/27/2024 HQ003420P0165 N/A POWERPOINT PRESENTATIONS AND BRIEFINGS ON ECONOMIC CRISES SUPPORT BRANDON O MITCHELL PETRONERDS LLC 7RNR2 541611 $1,193,887.00 NO SET ASIDE USED.
9/27/2024 HQ003421C0087 N/A PUBLICATIONS RESEARCH ASSISTANT SUPPORT SERVICES KAREN A. SMITH FASULO, MICHEAL J 7WJ54 541720 $263,999.88 SMALL BUSINESS SET ASIDE - TOTAL
9/27/2024 HQ003421C0089 N/A PUBLICATIONS RESEARCH ASSISTANT SUPPORT SERVICES KAREN A. SMITH SCOTT F THOMPSON 91K63 541720 $218,999.64 SMALL BUSINESS SET ASIDE - TOTAL
9/27/2024 HQ003421C0050 N/A PROGRAM AND PROJECT OVERSIGHT FOR CHIEF OF STAFF AND MISSION SUPPORT & SERVICES Jacqueline T. Imholte DIGITAL FORENSIC SERVICES, LLC 4L7F0 541519 $4,650,309.69 8(A) SOLE SOURCE
9/27/2024 HQ003423C0135 N/A ISOTOPE ANALYSIS STUDY Rashida D Webb VANDERBILT UNIVERSITY 5E694 541690 $39,249.36 NO SET ASIDE USED.
9/27/2024 HQ003422F0505 HQ003418A0007 OFFICE FURNITURE STEPHENIE CHARLOT MILLERKNOLL, INC. 40636 337214 $805,589.46 N/A
9/27/2024 HQ003423F0533 HQ003422D0018 ELECTRICAL PREVENTIVE MAINTENANCE AND REPLACEMENT SERVICES STEPHENIE CHARLOT M. C. DEAN, INC. 3K773 238210 $643,463.00 N/A
9/27/2024 HQ003423F0419 NNG15SD82B RED HAT ENTERPRISE LINUX SERVER KELLIE BUCK FAIRWINDS TECHNOLOGIES LLC 7NJG1 541519 $110,050.71 SMALL BUSINESS SET ASIDE - TOTAL
9/27/2024 HQ003423F0614 HQ003418D0027 UNIVERSITY AFFILIATED RESEARCH CENTER - SUPPORT FOR A STUDY ATTHE UNIVERSITY OF ALASKA. DOUGLAS J. BOORSTEIN UNIVERSITY OF ALASKA FAIRBANKS 3R2B4 611310 $4,336,475.00 N/A
9/27/2024 HQ003423F0688 NNG15SC92B ONLINE LAW ENFORCEMENT DATABASE ACCESS MICHELE Y. MAXWELL THUNDERCAT TECHNOLOGY, LLC 50WM7 541519 $33,793.20 SMALL BUSINESS SET ASIDE - TOTAL
9/27/2024 HQ003423F0732 47QREA22D0014 ONLINE LEGAL RESEARCH SUPPORT SERVICES KAREN A. SMITH RELX INC 1VVN8 511120 $303,348.00 N/A
9/27/2024 HQ003424F0153 GS00F002CA TECHNICAL & ANALYTICAL SUPPORT PAMELA W. ODHIAMBO SCIENCE APPLICATIONS INTERNATIONAL CORPORATION 6XWA8 541611 $879,196.00 N/A
9/27/2024 HQ084723F0038 HQ084719A0001 LODGING SERVICES KRISTIN F. MULVANEY ARMED FORCES RECREATION CENTERS EUROPE DD329 721110 $2,125,625.00 NO SET ASIDE USED.
9/28/2024 HQ084723F0039 HQ084722A0011 TRANSPORTATION SERVICES KRISTIN F. MULVANEY WEISS-BLAU REISEN GRUENAUER GMBH DL220 485310 $21,319.69 NO SET ASIDE USED.
9/28/2024 HQ003423F0752 GS28F016CA OFFICE FURNITURE STEPHENIE CHARLOT COMMERCIAL OFFICE FURNITURE COMPANY 0V2X8 337214 $123,476.80 SMALL BUSINESS SET ASIDE - TOTAL
9/28/2024 HQ003423F0757 HQ003421D0030 CONTSTRUCT A FENCE AND DOOR FRAME ON THE B3 LEVEL OF THE MARK CENTER. ALVINA WOODSON SERVICE SOURCE, INC 2Z880 561210 $21,649.00 N/A
9/28/2024 HQ003423P0229 N/A HARVARD BUSINESS SCHOOL LICENSES MICHAEL KLINE HARVARD BUSINESS SCHOOL PUBLISHING CORPORATION 48124 513210 $32,500.00 NO SET ASIDE USED.
9/28/2024 HQ003423F0520 HQ003418A0007 OFFICE FURNITURE STEPHENIE CHARLOT MILLERKNOLL, INC. 40636 337214 $160,301.82 N/A
9/28/2024 HQ003419P0257 N/A SUPERVISORY CONTROL AND DATA ACQUISITION SYSTEM (SCADA) MAINTENANCE KEISHA L. SIMMONS HSQ TECHNOLOGY, A CORPORATION 3S480 511210 $172,400.00 NO SET ASIDE USED.
9/28/2024 HQ003419C0165 N/A SOFTWARE ASSET MANAGEMENT SUPPORT SERVICES KEALON D. WALLACE TM3 SOLUTIONS, INC 5AJF6 541519 $55,895,779.21 8A COMPETED
9/29/2024 HQ003419C0120 N/A MEETING SEMINAR SUPPORT SERVICES CANDACE NOEL ADVANCED LAN TECHS INC 7CP79 541720 $4,540,126.62 8(A) SOLE SOURCE
9/29/2024 HQ003419F0407 HQ003419D0006 CYBER STUDIES AND ANALYSES STEVIE A. KREKELBERG JOHNS HOPKINS UNIVERSITY APPLIED PHYSICS LABORATORY LLC, THE 88898 541990 $115,712,562.06 N/A
9/29/2024 HQ003419F0691 GS06F1217Z VIDEO TELECONFERENCING (VTC) EQUIPMENT INSTALLATION AND MAINTENANCE CANDACE NOEL NATIONAL CAPITOL CONTRACTING, LLC 3FFS7 541512 $194,056.98 8(A) SOLE SOURCE
9/29/2024 HQ003420C0134 N/A FOREIGN VISITOR VETTING SUPPORT SERVICES KIM M. ROBINSON-LEACH PURDY GROUP LLC 547Q3 541990 $3,667,224.24 8(A) SOLE SOURCE
9/29/2024 HQ003419F0758 HQ003419D0042 PROGRAM MANAGEMENT SUPPORT SERVICES DARLENE V ERVIN LOGISTICS MANAGEMENT INSTITUTE 2D675 541990 $13,826,533.82 N/A
9/29/2024 HQ003420F0651 GS35F0119Y BOMGAR ANNUAL SOFTWARE MAINTENANCE AGREEMENT MICHAEL KLINE CARAHSOFT TECHNOLOGY CORP. 1P3C5 511210 $87,452.26 N/A
9/29/2024 HQ003421C0109 N/A APPIAN HOSTING SUPPORT SERVICES RONICA L SHELTON PHASE LLC 84BP4 541519 $5,597,294.02 8(A) SOLE SOURCE
9/29/2024 HQ003422C0001 N/A SMALL BUSINESS INNOVATION RESEARCH (SBIR) ON PHOTONIC PROCESSING WITH HIGH SPEED INTERCONNECTS Christina N Mazzoli ACCIPITER SYSTEMS, INC 3TYC4 541715 $1,471,417.00 SMALL BUSINESS SET ASIDE - TOTAL
9/29/2024 HQ003422C0114 N/A SMALL BUSINESS INNOVATION RESEARCH PROGRAM DIRECT TO PHASE II PHOTONIC ARTIFICIAL INTELLIGENCE (AI) PROCESSOR (PHASOR) ERIN P. ESLINGER (OTA) BASCOM HUNTER TECHNOLOGIES INC 64ZW7 541715 $1,499,916.08 SMALL BUSINESS SET ASIDE - TOTAL
9/29/2024 HQ003421F0163 47QRAA18D005S GRANT MANAGEMENT SUPPORT SERVICES LISA K. BROWN F2 SOLUTIONS, LLC 5VCB3 541611 $2,549,647.30 8(A) SOLE SOURCE
9/29/2024 HQ003421F0531 NNG15SD27B OKTA CUSTOMER IDENTITY CLOUD AUTHENTICATION SOFTWARE SUBSCRIPTION John w. Crawford V3GATE, LLC 4Y8H0 541519 $1,765,674.30 SMALL BUSINESS SET ASIDE - TOTAL
9/29/2024 HQ003421F0598 HQ003419D0038 PROGRAM SUPPORT SERVICES COURTNEY APPLEWHITE ADVANCED CONCEPTS AND TECHNOLOGIES INTERNATIONAL, LLC 1C2H1 541990 $12,374,685.86 N/A
9/29/2024 HQ003423F0386 NNG15SD08B SPLUNK ENTERPRISE SUPPORT RENEWAL FOR THE DEPARTMENT OF DEFENSE OFFICE OF INSPECTOR GENERAL. KELLIE BUCK ANACAPA MICRO PRODUCTS, INC. 0TXG2 541519 $62,410.80 N/A
9/29/2024 HQ003422F0510 HQ003419D0003 SYSTEMS ENGINEERING RESEARCH CENTER RESEARCH TASK 1071 JOELLE FAUCHER STEVENS INSTITUTE OF TECHNOLOGY (INC) 7069 541715 $2,938,299.16 N/A
9/29/2024 HQ003422F0541 HQ003422A0013 STRATEGIC DEVELOPMENT SUPPORT SUPPORT SERVICES RONICA L SHELTON CLEARING, INC., THE 58LH7 541611 $2,715,727.00 N/A
9/29/2024 HQ003422F0556 N6600119A0049 INFORMATION TECHNOLOGY EXECUTIVE RESEARCH LICENSE JACQUELINE G. VERRINE GARTNER, INC. 0EFU3 541519 $198,090.00 N/A
9/29/2024 HQ003422F0576 N6600119D0019 MICROSOFT UNIFIED SERVICES COURTNEY APPLEWHITE MICROSOFT CORPORATION 60128 541511 $220,179.75 N/A
9/29/2024 HQ003422F0579 HQ003420D0010 FINANCIAL MANAGEMENT DIRECTORATE DATA INTEGRATION SUPPORT SERVICES ROYA M. STERNER NAKUPUNA SOLUTIONS, LLC 81GP1 541611 $1,128,890.88 N/A
9/29/2024 HQ003423C0138 N/A BASE COMMUNICATION ANALOG SYSTEM RONICA L SHELTON RQ CONSTRUCTION, LLC 68JG2 541611 $72,520.00 NO SET ASIDE USED.
9/29/2024 HQ003423C0139 N/A PARKING MANAGEMENT SOFTWARE SUPPORT SERVICES KAREN A. SMITH JASINT CONSULTING AND TECHNOLOGIES, LLC 394K8 541512 $3,929,646.67 8(A) SOLE SOURCE
9/29/2024 HQ003423C0115 N/A FIBER INFRASTRUCTURE INSTALLATION RONICA L SHELTON RQ CONSTRUCTION, LLC 68JG2 238210 $137,814.00 NO SET ASIDE USED.
9/29/2024 HQ003423P0202 N/A HACK THE PENTAGON 3.0 PENETRATION TESTING KIMBERLY DARBY BREAKPOINT CYBER SOLUTIONS JV LLC 9EPR4 541519 $242,796.80 8(A) SOLE SOURCE
9/29/2024 HQ003423F0754 NNG15SC82B NUIX SOFTWARE MICHELE Y. MAXWELL NEW TECH SOLUTIONS, INC. 1QN24 541519 $167,931.88 SMALL BUSINESS SET ASIDE - TOTAL
9/29/2024 HQ003423F0755 47QTCB22D0218 DATA CENTER AND CLOUD ENGINEERING SUPPORT SERVICES KELLIE BUCK NEXTECH LINTECH LLC 82DM4 541512 $3,775,910.40 8(A) SOLE SOURCE
9/29/2024 HQ003423F0737 NNG15SC92B VIDEO TELECONFERENCING (VTC) ENDPOINT REQUIREMENT MICHELE Y. MAXWELL THUNDERCAT TECHNOLOGY, LLC 50WM7 541519 $72,038.64 SMALL BUSINESS SET ASIDE - TOTAL
9/29/2024 HQ003423F0739 47QTCA19D00CB BASTILLE PRODUCTS & SERVICES KEALON D. WALLACE FCN, INC. 0WU14 541519 $649,419.23 N/A
9/29/2024 HQ003423F0729 NNG15SD76B APPIAN FLAT APPLICATION SUBSCRIPTION KAREN A. SMITH ENTERPRISE TECHNOLOGY SOLUTIONS, INC. 62PR1 541519 $913,450.92 SMALL BUSINESS SET ASIDE - TOTAL
9/29/2024 HQ003423F0763 47QRAA19D009H LEGAL SUPPORT SERVICES KEALON D. WALLACE GILCHRIST LAW FIRM, P.A., THE 7Q6K1 541110 $512,684.64 SDVOSB SOLE SOURCE
9/29/2024 HQ003423F0625 HQ003423D0026 CYBERSECURITY SUPPORT SERVICES MONICA ALDA BURNS DEGROOT AKIMA DATA MANAGEMENT LLC 7VW94 541512 $23,530,713.60 N/A
9/29/2024 HQ003423F0620 HQ003420D0006 BUSINESS VIDEO DEVELOPMENT MARIA M. FIGUEROA CYBERMEDIA TECHNOLOGIES, INC. 3P0K9 611710 $442,513.93 N/A
9/29/2024 HQ003423F0687 NNG15SC82B LANGUAGE TRANSLATION SOFTWARE MICHELE Y. MAXWELL NEW TECH SOLUTIONS, INC. 1QN24 541519 $94,973.00 SMALL BUSINESS SET ASIDE - TOTAL
9/29/2024 HQ003423F0711 NNG15SC27B CLOUD SUBSCRIPTION - ENTERPRISE NAMED RONICA L SHELTON CARAHSOFT TECHNOLOGY CORPORATION 1P3C5 541519 $676,985.88 N/A
9/29/2024 HQ003423F0659 N6600119A0006 MICROSOFT AZURE SOFTWARE LICENSES MONICA ALDA BURNS DEGROOT MINBURN TECHNOLOGY GROUP, LLC 66LV8 511210 $117,015.48 N/A
9/29/2024 HQ003423F0597 03310318DL19C0013 PROQUEST, LLC ONLINE LIBRARY SUBSCRIPTIONS MARIA M. FIGUEROA PROQUEST LLC 3E922 519190 $151,387.40 N/A
9/29/2024 HQ084723F0030 HQ084721A0001 TRANSPORTATION SERVICES KRISTIN F. MULVANEY MICE-MOBILITY GMBH CH570 485310 $0.00 NO SET ASIDE USED.
9/29/2024 HQ084723F0031 HQ084722A0014 TRANSPORTATION SUPPORT KRISTIN F. MULVANEY ATILLA COLAK TAXIUNTERNEHMEN CN8G6 485310 $47,969.29 NO SET ASIDE USED.
9/29/2024 HQ084723F0034 HQ084722A0015 TRANSPORTATION SERVICES KRISTIN F. MULVANEY CENNET AKAR TAXIUNTERNEHMEN CN8G7 485310 $31,979.53 NO SET ASIDE USED.
9/29/2024 HQ084723F0037 HQ084721A0001 TRANSPORTATION SERVICES KRISTIN F. MULVANEY MICE-MOBILITY GMBH CH570 485310 $53,299.22 NO SET ASIDE USED.
9/30/2024 HQ003424F0209 HQ003423D0016 CIVIL MILITARY RELATIONS AND SECURITY GOVERNANCE COURSES COURTNEY APPLEWHITE HII MISSION TECHNOLOGIES CORP 3BM51 611710 $191,548.50 N/A
9/30/2024 HQ003424F0079 HQ003423D0016 SECURITY COURSE SERVICES COURTNEY APPLEWHITE HII MISSION TECHNOLOGIES CORP 3BM51 611710 $296,882.77 N/A
9/30/2024 HQ003424F0092 HQ003419D0003 SYSTEMS ENGINEERING RESEARCH CENTER TASK 1083 DOUGLAS J. BOORSTEIN STEVENS INSTITUTE OF TECHNOLOGY (INC) 7069 541715 $749,919.17 N/A
9/30/2024 HQ003424F0083 HQ003423A0008 AIR FILTERS ALVINA WOODSON ARTEX GROUP LLC 9GY36 333413 $10,772.60 SMALL BUSINESS SET ASIDE - TOTAL
9/30/2024 HQ003424F0084 HQ003422D0018 ELECTRICAL PREVENTIVE MAINTENANCE AND REPAIR SERVICES STEPHENIE CHARLOT M. C. DEAN, INC. 3K773 238210 $20,930.00 N/A
9/30/2024 HQ003424F0176 GS00F148GA PERFORM MAINTENANCE AND INSTRUCTION OF CON 7200V BETTER BUSINESS DEALS AND CON 7210V BETTER BUSINESS DEALS - FOCUS ON THE PRIVATE SECTOR. MICHAEL KLINE MPF FEDERAL LLC 6SCJ2 541611 $221,646.24 N/A
9/30/2024 HQ003424F0177 HQ003422D0002 INSTALL TRAFFIC ARMS YOLNIE MERRIWEATHER M. C. DEAN, INC. 3K773 561621 $67,380.00 N/A
9/30/2024 HQ003424F0114 HQ003423A0008 AIR FILTERS ALVINA WOODSON ARTEX GROUP LLC 9GY36 333413 $8,239.96 SMALL BUSINESS SET ASIDE - TOTAL
9/30/2024 HQ003424F0102 HQ003422A0016 UNIFORM JACKETS MICHELLE G. REAVES F & F AND A. JACOBS & SONS, INC 0EKB5 315210 $1,463.00 SMALL BUSINESS SET ASIDE - TOTAL
9/30/2024 HQ003423F0706 HQ003423D0038 CONSTRUCTION MANAGEMENT TECHNICAL SERVICE STORMY ANTHONY MARKON LLC 4U7L1 236220 $10,816,702.20 N/A
9/30/2024 HQ003423F0726 HQ003423D0038 CONSTRUCTION MANAGEMENT TECHNICAL SUPPORT SERVICES STORMY ANTHONY MARKON LLC 4U7L1 236220 $2,811,013.60 N/A
9/30/2024 HQ003423F0727 HQ003423D0038 CONSTRUCTION MANAGEMENT TECHNICAL SUPPORT SERVICES STORMY ANTHONY MARKON LLC 4U7L1 236220 $837,859.60 N/A
9/30/2024 HQ003423F0728 HQ003423D0038 CONSTRUCTION MANAGEMENT TECHNICAL SUPPORT SERVICES STORMY ANTHONY MARKON LLC 4U7L1 236220 $521,324.00 N/A
9/30/2024 HQ003423F0594 HQ003420D0002 SOFTWARE-AS-A-SERVICE (SAAS) PLATFORM JASMINE S. SADAT POPLICUS INCORPORATED 7DR83 541990 $450,000.00 N/A
9/30/2024 HQ003423P0159 N/A SIMULATION COURSE DEVELOPMENT MARIA M. FIGUEROA EXECUTIVE EDGE INC 8ZDK9 611430 $652,730.00 NO SET ASIDE USED.
9/30/2024 HQ003423F0738 HQ003423D0038 CONSTRUCTION MANAGEMENT TECHNICAL SERVICES STORMY ANTHONY MARKON LLC 4U7L1 236220 $836,524.80 N/A
9/30/2024 HQ003423F0762 HQ003421D0018 SNOW AND ICE REMOVAL SERVICES, PENTAGON STORMY ANTHONY TD SNOW REMOVAL CORPORATION 8J9N2 488490 $1,140,751.36 N/A
9/30/2024 HQ003422P0011 N/A TRISTRUCTURAL ISOTROPHIC (TRISO) FUEL PACKAGE AND TRANSPORT ERIN P. ESLINGER NAC INTERNATIONAL INC. 3JRH4 541330 $1,791,250.00 NO SET ASIDE USED.
9/30/2024 HQ003422F0464 HQ003422D0002 INTEGRATED SECURITY SERVICES CONTRACT - PROCURE ELECTRONIC SECURITY SYSTEM (ESS) KIM M. ROBINSON-LEACH M. C. DEAN, INC. 3K773 561621 $1,249,186.00 N/A
9/30/2024 HQ003423F0173 HQ003421D0012 PREVENTIVE MAINTENANCE FOR UNINTERRUPTIBLE POWER SUPPLY SYSTEMS STEPHENIE CHARLOT M. C. DEAN, INC. 3K773 811310 $2,717,794.92 N/A
9/30/2024 HQ003423F0253 NNG15SC23B SMS MAGNET AXIOM SOFTWARE PLATFORM SHARON HILTON ACCESSAGILITY LLC 50TZ9 541519 $90,720.12 SMALL BUSINESS SET ASIDE - TOTAL
9/30/2024 HQ003423F0273 HQ003422D0002 INTEGRATED SECURITY SERVICES CONTRACT 03212302 PROCURE TRAFFIC ARMS FOR THE NORTH ROTARY AND FERN (NR&F) VEHICLE ACCESS CONTROL POINT (VACP) REJECTION LANE. MICHELLE G. REAVES M. C. DEAN, INC. 3K773 561621 $103,712.00 N/A
9/30/2024 HQ003423F0506 HQ003423D0016 EMERGENCY CLIMATE SECURITY SERVICES COURTNEY APPLEWHITE HII DEFENSE AND FEDERAL SOLUTIONS INC 0MWW4 611710 $356,802.91 N/A
9/30/2024 HQ003421F0565 HQ003417D0006 EMERGENCY CALL BOX UPGRADE MONICA ALDA BURNS DEGROOT M.C. DEAN, INC. 3K773 561621 $104,531.00 N/A
9/30/2024 HQ003421F0489 HQ003417D0006 METRO VIDEO ENHANCEMENT MONICA ALDA BURNS DEGROOT M.C. DEAN, INC. 3K773 561621 $424,692.00 N/A
9/30/2024 HQ003421F0341 HQ003417D0006 INSTALL ACCESS CONTROL SYSTEM (ACS) MONICA ALDA BURNS DEGROOT M.C. DEAN, INC. 3K773 561621 $25,922.00 N/A
9/30/2024 HQ003421C0109 N/A DEVELOPMENT SUPPORT SERVICES RONICA L SHELTON PHASE LLC 84BP4 541519 $5,794,892.98 8(A) SOLE SOURCE
9/30/2024 HQ003422F0454 HQ003422D0002 ISSC 07062203 ACS CCTV GSA WAREHOUSE YOLNIE MERRIWEATHER M. C. DEAN, INC. 3K773 561621 $381,903.00 N/A
9/30/2024 HQ00342090021 N/A MACHINE LEARNING AND ARTIFICIAL INTELLIGENCE PROTOTYPE ERIN P. ESLINGER (OTA) EXPEDITION TECHNOLOGY, INC. 70DK0 N/A $9,815,166.11 N/A
9/30/2024 HQ003420F0839 HQ003417D0013 ELECTRICAL PREVENTIVE MAINTENANCE SERVICES STEPHENIE CHARLOT M. C. DEAN, INC. 3K773 811310 $1,158,717.14 N/A
9/30/2024 HQ003419F0313 HQ003417D0012 ARCHITECTURE AND ENGINEERING DESIGN FOR REPAIR OF PENTAGON TRANSIT CENTER BRIDGE JUAN C. GOMEZ HDR ARCHITECTURE, INC. 1QHA8 541330 $1,351,845.33 N/A
9/30/2024 HQ003420P0042 N/A HEATING VENTILATION AIR CONDITIONING (HVAC) SERVICES-MECHANICSBURG, PA KIM M. ROBINSON-LEACH N R G BUILDING SERVICES, INC 3XAJ8 238210 $119,050.00 SMALL BUSINESS SET ASIDE - TOTAL
9/30/2024 HQ003419C0166 N/A LOGISTICS SUPPORT SERVICES. JAMES CANADY III CHENEGA HEALTHCARE SERVICES, LLC 703G2 493110 $12,153,630.68 8(A) SOLE SOURCE
10/3/2024 HQ0034219CA01 N/A OTHER TRANSACTION AGREEMENT FOR ENGINEERING/TECHNICAL SERVICES KIMBERLY E. KOZLOWSKI TEXAS A&M ENGINEERING EXPERIMENT STATION 0EBC6 N/A $1,603,523.00 N/A
10/3/2024 HQ0034219CA14 N/A OTHER TRANSACTION AGREEMENT FOR MULTI-DISCIPLINARY OPTIMIZATION KIMBERLY E. KOZLOWSKI TEXAS A&M ENGINEERING EXPERIMENT STATION 0EBC6 N/A $984,945.00 N/A
10/3/2024 HQ0034219CA11 N/A OTHER TRANSACTION AGREEMENT FOR CHARACTERIZATION, MODELING, AND VALIDATION OF DIVERT AND ATTITUDE JET CONTROL KIMBERLY E. KOZLOWSKI TEXAS A&M ENGINEERING EXPERIMENT STATION 0EBC6 N/A $851,186.00 N/A
10/10/2024 HQ003424F0194 HQ003422D0002 ELECTRONIC SECURITY SYSTEM MAINTENANCE AND SUSTAINMENT SERVICES YOLNIE MERRIWEATHER M. C. DEAN, INC. 3K773 561621 $498,275.00 N/A
10/17/2024 HQ003422F0385 HQ003417D0012 ARCHITECT AND ENGINEERING SERVICES: REMOTE DELIVERY FACILITY (RDF) WALL RELOCATION Myra M.Freeberg HDR ARCHITECTURE, INC. 1QHA8 541330 $357,852.00 N/A
10/21/2024 HQ003423F0748 HQ003421D0025 DESIGN-BUILD CONSTRUCTION TO REPLACE ELECTRICAL LINE IN NORTH PARKING KYLE R BLAKE SIGNATURE RENOVATIONS LLC 5L6K4 236220 $1,397,557.00 N/A
10/22/2024 HQ003424F0014 N6600120A0022 SPLUNK SOFTWARE RENEWAL SUSIE LEE CARAHSOFT TECHNOLOGY CORP. 1P3C5 511210 $20,636.66 N/A
10/22/2024 HQ003423F0650 HQ003422D0021 BID-BUILD CONSTRUCTION OF NORTH ROTARY ROAD SECURE FENCE AND BOLLARDS JUAN C. GOMEZ ATHENA CONSTRUCTION GROUP INC 4TZW5 237310 $11,898,091.00 N/A
10/22/2024 HQ003424F0063 HQ003421D0030 MARK CENTER FACILITY OPERATIONS, BUILDING MAINTENANCE, CUSTODIAL, AND GROUNDS MAINTENANCE. ALVINA WOODSON SERVICE SOURCE, INC 2Z880 561210 $68,342.00 N/A
10/22/2024 HQ003423F0283 HQ003422D0021 DESIGN-BID-BUILD CONSTRUCTION FOR SOUTH SECURE PARKING KYLE R BLAKE ATHENA CONSTRUCTION GROUP INC 4TZW5 237310 $8,998,893.00 N/A
10/25/2024 HQ00342190020 N/A GROUND AND FLIGHT TEST PROTOTYPE DEMONSTRATIONS OF AIR-BREATHING FLOWPATH INTEGRATION AND ENHANCEMENTS CHRISTINA N. MAZZOLI INNOVEERING, LLC 5K4J8 N/A $6,272,603.00 N/A
10/31/2024 HQ003421F0432 GS27F0008Y OFFICE FURNITURE STEPHENIE CHARLOT OFFICE IMAGES, INC. 1WKV9 337214 $146,010.85 N/A
10/31/2024 HQ003422F0003 N6600119A0120 SERVICENOW SOFTWARE LICENSE SERVICE DELIVERY RONICA L SHELTON CARAHSOFT TECHNOLOGY CORP. 1P3C5 511210 $761,568.72 N/A
10/31/2024 HQ003422F0007 N6600119A0005 MICROSOFT TRUE-UP SOFTWARE LICENSES. MONICA ALDA BURNS DEGROOT INSIGHT PUBLIC SECTOR, INC. 06ZC1 334111 $477,436.98 N/A
10/31/2024 HQ003418C0021 N/A OFFICE OF SMALL BUSINESS EVENT SUPPORT SERVICES Warren G. Arthur III ERIKA DAVIS EVENTS, INC. 680R3 561920 $3,771,163.77 8(A) SOLE SOURCE
10/31/2024 HQ003419F0503 HQ003417D0013 ELECTRICAL PREVENTIVE MAINTENANCE SERVICES STEPHENIE CHARLOT M. C. DEAN, INC. 3K773 811310 $1,284,119.73 N/A
10/31/2024 HQ003419F0598 HQ003418D0018 DOD INFORMATION NETWORK (DODIN) MODERNIZATION AND PERFORMANCE MANAGEMENT - ENGINEERING AND TECHNICAL SUPPORT SERVICES LEANNE M. CONDREN CACI NSS, INC. 3HNV7 541990 $20,004,595.02 N/A
10/31/2024 HQ0034209P001 N/A PREDICATIVE MAINTENANCE SOFTWARE Meghan T. Meyers C3.AI, INC. 6S6K2 N/A $95,000,000.00 N/A
10/31/2024 HQ00342490006 N/A ENHANCED GEOTHERMAL SYSTEMS Chersharon Y. King SAGE GEOSYSTEMS INC. 8RGL7 N/A $600,391.73 N/A
11/7/2024 HQ003424F0016 N0024418D0002 SPIRAL 3 IPADS, KEYBOARDS, AND T-MOBILE SERVICE ERIC DARBY T-MOBILE USA, INC 3BQL1 517312 $5,310.00 N/A
11/7/2024 HQ00342290007 N/A HYBRID SPACE ARCHITECTURE PROTOTYPE PROJECT Chersharon Y. King ATLAS SPACE OPERATIONS, INC. 7LS80 N/A $1,723,613.00 N/A
11/7/2024 HQ003423F0237 HQ003419D0003 RESEARCH IN SUPPORT OF THE DEFENSE CIVILIAN TRAINING CORPS SYSTEMS ENGINEERING RESEARCH CENTER TASK 1080 JOELLE FAUCHER STEVENS INSTITUTE OF TECHNOLOGY (INC) 7069 541715 $24,499,997.19 N/A
11/9/2024 HQ003424F0007 NNG15SD01B SOFTWARE AND HARDWARE SUPPORT SERVICES MICHAEL KLINE FEDBIZ IT SOLUTIONS LLC 6ETQ1 541519 $77,440.05 N/A
11/9/2024 HQ003424F0013 HHSN316201500059W GOOGLE WORKSPACE ENTERPRISE PLUS: NEW/RE RONICA L SHELTON IT1 SOURCE LLC 3PGB2 541519 $322,948.78 SMALL BUSINESS SET ASIDE - TOTAL
11/13/2024 HQ003424F0204 HQ003424A0008 LEADERSHIP AND TALENT MANAGEMENT TRAINING COURSES FOR EARLY, INTERMEDIATE AND SENIOR LEADERSHIP DEVELOPMENT. MARIA M. FIGUEROA SANDS CONSULTING GROUP, INC. 52PY7 611430 $179,656.00 8(A) SOLE SOURCE
11/13/2024 HQ003423F0447 HQ003419D0018 UPGRADE PAC POWER CIRCUITS KEISHA L. SIMMONS SIGNATURE RENOVATIONS LLC 5L6K4 236220 $69,000.00 N/A
11/16/2024 HQ003420F0190 HQ003418D0017 FINANCIAL PLANNING & DATA ANALYTICS AND CYBERSECURITY SUPPORT SERVICES LEANNE M. CONDREN BOOZ ALLEN HAMILTON INC. 17038 541990 $37,841,948.51 N/A
11/17/2024 HQ003419P0260 N/A CYBER TRAINING RANGE MARIA M. FIGUEROA AM PIERCE & ASSOCIATES, INC. 4XMD2 541511 $7,257,196.87 NO SET ASIDE USED.
11/18/2024 HQ003419F0118 HQ003418D0017 INFORMATION TECHNOLOGY PROCUREMENT REQUEST (ITPR) ENGINEERING AND TECHNICAL SUPPORT SERVICES LEANNE M. CONDREN BOOZ ALLEN HAMILTON INC. 17038 541990 $12,185,411.13 N/A
11/19/2024 HQ003423F0471 HQ003419D0006 JOHN HOPKINS UNIVERSITY APPLIED PHYSICS ANALYSIS AND STUDIES Warren G. Arthur III JOHNS HOPKINS UNIVERSITY APPLIED PHYSICS LABORATORY LLC, THE 88898 541990 $4,373,245.00 N/A
11/20/2024 HQ003420F0112 HQ003418D0017 ENTERPRISE CAPABILITIES PROJECT AND ANALYTICAL SUPPORT SERVICES LEANNE M. CONDREN BOOZ ALLEN HAMILTON INC. 17038 541990 $23,642,558.48 N/A
11/20/2024 HQ003423F0636 GS30F040BA EMERGENCY RESPONSE TEAM VEHICLE DAVID S. DOTY GLOBAL ENTERPRISE INC 644N7 336211 $460,000.00 SMALL BUSINESS SET ASIDE - TOTAL
11/21/2024 HQ003424P0007 N/A LEGAL CONSULTING SERVICES ANTHONY T STEPHENSON MOSES & SINGER LLP 8B1M8 541110 $57,000.00 NO SET ASIDE USED.
11/22/2024 HQ003423P0005 N/A RESEARCH AND REPORTS ON PUNITIVE EXPEDITIONS IN HISTORY CANDACE NOEL HUDSON INSTITUTE, INC. 8A919 541720 $213,471.55 NO SET ASIDE USED.
11/25/2024 HQ003424F0179 HQ003423D0025 DESIGN HEATING AND REFRIGERATION PLANT THERMAL ENERGY STORAGE TANK JUAN C. GOMEZ HDR ARCHITECTURE, INC. 1QHA8 541330 $1,846,391.11 N/A
11/28/2024 HQ003420F0072 GS00F350CA JOINT DATA ANALYSIS SUPPORT SERVICES LAWAN FERGUSON TYTO GOVERNMENT SOLUTIONS, INC. 7N699 541330 $16,935,482.67 N/A
11/30/2024 HQ003424F0028 HQ003424D0002 PEST MANAGEMENT SERVICES STEPHENIE CHARLOT ALEXANDRIA PEST SERVICES, INC. 4ECD1 561710 $192,900.00 N/A
12/7/2024 HQ003424F0023 HQ003423D0021 RESIDENTIAL SECURITY SUPPORT SERVICES KEALON D. WALLACE SECURITYHUNTER, INC. 1TZX8 561621 $178,900.92 N/A
12/10/2024 HQ003424F0096 HQ003420A0004 TECHNOLOGY ACCELERATOR SUPPORT RONICA L SHELTON JUICE CONSULTING LLC 8ED11 813920 $349,920.00 NO SET ASIDE USED.
12/10/2024 HQ003420F0218 HQ003420A0004 TECHNOLOGY ACCELERATOR SUPPORT ANDREA M MONTGOMERY JUICE CONSULTING LLC 8ED11 813920 $61,875.00 NO SET ASIDE USED.
12/11/2024 HQ003423F0185 HQ003422D0002 LIFE CYCLE REPLACEMENT OF TURNSTILES KIM M. ROBINSON-LEACH M. C. DEAN, INC. 3K773 561621 $262,201.00 N/A
12/11/2024 HQ003424P0026 N/A REPORTS ON THE IMPACT OF CLIMATE CHANGE ON PEOPLE'S LIBERATION ARMY BASING AND OPERATIONS PAMELA W. ODHIAMBO BLUEPATH LABS LLC 60JV7 541720 $105,901.29 NO SET ASIDE USED.
12/15/2024 HQ003424F0146 HQ003423D0016 PEACEKEEPING SERVICES COURTNEY APPLEWHITE HII MISSION TECHNOLOGIES CORP 3BM51 611710 $152,227.60 N/A
12/17/2024 HQ003424C0010 N/A DISTRIBUTED ANTENNA SYSTEM (DAS) REPLACEMENT EQUIPMENT RONICA L SHELTON INFLEXION MANAGEMENT SCIENCES LLC 4CW06 238210 $139,924.81 SMALL BUSINESS SET ASIDE - TOTAL
12/17/2024 HQ003421C0005 N/A SMALL BUSINESS INNOVATION RESEARCH PHASE II STUDY FOR HYPERSONIC ELECTRO OPTICAL SEEKER SYSTEM ERIN P. ESLINGER (OTA) CYAN SYSTEMS, INC 4DQC8 334511 $1,499,936.58 SMALL BUSINESS SET ASIDE - TOTAL
12/18/2024 HQ003419F0752 HQ003415D0018 FOREIGN INVESTMENT RISK PROGRAM DEVELOPMENT Warren G. Arthur III SYSTEMS PLANNING AND ANALYSIS, INC. 7L563 541990 $101,576,970.34 N/A
12/19/2024 HQ084722F0003 NNG15SC71B F5 LICENSES & SUPPORT KRISTIN F. MULVANEY FCN, INC. 0WU14 541519 $14,937.00 N/A
12/21/2024 HQ003424F0036 HQ003420D0002 SOFTWARE AS A SERVICE PLATFORM Rashida D Webb POPLICUS INCORPORATED 7DR83 541990 $12,000,000.00 N/A
12/22/2024 HQ003421F0051 NNG15SC83B APC RACK EQUIPMENT MAINTENANCE SUPPORT ERIC DARBY NORSEMAN, INC. 0WNZ6 541519 $44,571.17 N/A
12/26/2024 HQ003423F0618 HQ003418D0027 ARCTIC DATA COLLECTION DOUGLAS J. BOORSTEIN UNIVERSITY OF ALASKA FAIRBANKS 3R2B4 611310 $164,497.00 N/A
12/27/2024 HQ003422F0234 HQ003418A0004 FUNCTIONAL AND INTEGRATED TESTING ELIZABETH I. VAETH KONIAG INFORMATION SECURITY SERVICES LLC 6LZS7 541512 $10,969,153.59 SMALL BUSINESS SET ASIDE - TOTAL
12/27/2024 HQ003422F0235 HQ003418A0005 DEFENSE ACQUISITION VISIBILITY ENVIRONMENT CAPABILITY DELIVERY & SUSTAINMENT ELIZABETH I. VAETH GREENZONE SOLUTIONS, INC. 6F6T0 541512 $3,853,792.98 SMALL BUSINESS SET ASIDE - TOTAL
12/30/2024 HQ003424F0027 HQ003421D0030 BLAST DOOR/BALLISTIC DOOR INSTALLATION ALVINA WOODSON SERVICE SOURCE, INC 2Z880 561210 $386,517.00 N/A
12/31/2024 HQ0034249PD18 HQ0034219P001 COUNTER UNMANNED AERIAL SYSTEMS Chersharon Y. King ANDURIL INDUSTRIES, INC. 85LD7 N/A $11,994,590.57 N/A
12/31/2024 HQ003424C0004 N/A FINANCIAL AUDIT STATEMENT SERVICES MICHELE Y. MAXWELL RMA ASSOCIATES LLC 5VR67 541211 $733,871.41 8(A) SOLE SOURCE
12/31/2024 HQ003424F0035 HQ003422D0001 LANDSCAPE MAINTENANCE SERVICES KEISHA L. SIMMONS CUSTOM LAWN SERVICE INC 0T1B7 561730 $1,117,964.24 N/A
12/31/2024 HQ003422F0107 HQ003422D0002 BATTERY LIFECYCLE REPLACEMENT YOLNIE MERRIWEATHER M. C. DEAN, INC. 3K773 561621 $213,243.00 N/A
12/31/2024 HQ003424F0093 HQ003423D0016 RESIDENT COURSE AND DEVELOPMENT SERVICE COURTNEY APPLEWHITE HII MISSION TECHNOLOGIES CORP 3BM51 611710 $95,565.07 N/A
12/31/2024 HQ003422F0276 HQ003422D0002 PENTAGON INFRASTRUCTURE MAINTENANCE MANAGEMENT SYSTEM YOLNIE MERRIWEATHER M. C. DEAN, INC. 3K773 561621 $534,686.00 N/A
12/31/2024 HQ003422F0383 HQ003422D0002 INTEGRATED SECURITY SERVICES CONTRACT PROJECT NO. 03212302 SECURITY LIGHTING AND PERIMETER INTRUSION DETECTION SYSTEM INSTALLATION. MICHELLE G. REAVES M. C. DEAN, INC. 3K773 561621 $1,979,590.00 N/A
12/31/2024 HQ003422F0311 HQ003422D0002 INSTALLATION OF AN ALARM SYSTEM YOLNIE MERRIWEATHER M. C. DEAN, INC. 3K773 561621 $29,363.00 N/A
12/31/2024 HQ003422P0039 N/A CIOSE MEMBERSHIP LEANNE M. CONDREN CIOSE, LLC 7JPH6 813920 $135,000.00 NO SET ASIDE USED.
12/31/2024 HQ003422F0534 HQ003421D0012 UNINTERRUPTED POWER SYSTEM (UPS) POWER DISTRIBUTION UNITS (PDU) UPGRADE SUPPORT KEVIN A ROMANACH M. C. DEAN, INC. 3K773 811310 $1,453,052.00 N/A
12/31/2024 HQ003421F0513 HQ003417D0006 INSTALLATION OF VIDEO SURVEILLANCE SYSTEM YOLNIE MERRIWEATHER M.C. DEAN, INC. 3K773 561621 $498,986.00 N/A
12/31/2024 HQ003421F0526 HQ003417D0006 REMOVAL AND REINSTALLATION OF SECURITY DEVICES YOLNIE MERRIWEATHER M.C. DEAN, INC. 3K773 561621 $10,757.00 N/A
12/31/2024 HQ003420F0098 HQ003417D0006 INSTALLATION CAMERA SERVICES YOLNIE MERRIWEATHER M.C. DEAN, INC. 3K773 561621 $75,622.00 N/A
12/31/2024 HQ003420F0224 GS00F253CA TECHNICAL AND ADMINISTRATIVE SUPPORT SERVICES FOR WARFIGHTER SUPPORT, AND COMBATANT COMMAND INTELLIGENCE SUPPORT JACQUELINE G. VERRINE IAN, EVAN & ALEXANDER CORPORATION 1XCZ1 541611 $24,770,678.49 N/A
12/31/2024 HQ003420F0126 HQ003415A0025 ANALYSIS AND DATA ENGINEERING SUPPORT JACQUELINE G. VERRINE REDHORSE CORPORATION 4WS86 611430 $20,278,700.96 N/A
12/31/2024 HQ003420F0015 HQ003419D0001 FEDERALLY FUNDED RESEARCH AND DEVELOPMENTAL CENTER MAJOR PROJECT INSTITUTE FOR SECURITY GOVERNANCE PROGRAM SUPPORT ELIZABETH I. VAETH INSTITUTE FOR DEFENSE ANALYSES 7A293 541990 $363,761,337.06 N/A
1/1/2025 HQ003422F0168 HQ003422D0002 MAINTENANCE SERVICES YOLNIE MERRIWEATHER M. C. DEAN, INC. 3K773 561621 $411,206.55 N/A
1/2/2025 HQ003424F0037 HQ003421A0002 MARKETING AND COMMUNICATION SUPPORT SERVICES KEALON D. WALLACE OUTCAST AGENCY LLC, THE 771E4 541613 $144,000.00 NO SET ASIDE USED.
1/7/2025 HQ003424F0047 HQ003421D0010 JASON LETTER STUDY DOUGLAS J. BOORSTEIN THE MITRE CORPORATION 7L030 541611 $82,895.00 N/A
1/8/2024 HQ00342490005 N/A ENHANCED GEOTHERMAL SYSTEMS Chersharon Y. King (OTA) GREENFIRE ENERGY INC 5AEX5 N/A $89,099.00 N/A
1/9/2025 HQ003422P0005 N/A OFFICE OF THE SECRETARY OF DEFENSE IDENTIFICATION BADGE KAREN A. SMITH KENNEDY, INCORPORATED 0VLP7 332999 $35,775.00 SMALL BUSINESS SET ASIDE - TOTAL
1/11/2025 HQ003423F0384 HQ003422D0002 EXPLOSIVE TRACE DETECTION MACHINE LIFE-CYCLE REPLACEMENT KIM M. ROBINSON-LEACH M. C. DEAN, INC. 3K773 561621 $42,301.00 N/A
1/14/2025 HQ003423F0394 HQ003422D0002 X-RAY MACHINE LIFE-CYCLE REPLACEMENT KIM M. ROBINSON-LEACH M. C. DEAN, INC. 3K773 561621 $37,820.00 N/A
1/14/2025 HQ003421C0021 N/A IDENTITY INTELLIGENCE TECHNICAL, POLICY & ANALYTICAL SUPPORT, WHICH INCLUDES: POLICY AND PLANNING GUIDANCE, TECHNICAL DEVELOPMENT, PROVIDING TACTICAL/OPERATIONAL EXPERTISE, AND SUPPORTING STRATEGIC LEVEL ENGAGEMENTS. JACQUELINE G. VERRINE WWC GLOBAL LLC 3XTD1 541330 $3,709,904.08 NO SET ASIDE USED.
1/14/2024 HQ003424C0004 N/A FINANCIAL AUDIT STATEMENT SERVICES LATOVA J GREENE RMA ASSOCIATES LLC 5VR67 541211 $733,871.41 8(A) SOLE SOURCE
1/16/2025 HQ003424P0015 N/A X1AB - LEASE/RENTAL OF CONFERENCE SPACE AND FACILITIES IS THE APPROPRIATE PSC KEALON D. WALLACE S365 INC 8GEZ0 721110 $20,905.25 SMALL BUSINESS SET ASIDE - TOTAL
1/17/2025 HQ003421C0024 N/A FINANCIAL ACQUISITION AND MANAGEMENT SUPPORT ELIZABETH I. VAETH PURDY GROUP LLC 547Q3 541611 $4,320,945.02 8(A) SOLE SOURCE
1/18/2025 HQ003420F0091 47QTCA19D003E INTERNAL RESOURCE MANAGEMENT APPLICATION - INTELLIGENCE (IRMA-I) FINANCIAL DATABASE SUPPORT JACQUELINE G. VERRINE QUALITY SYSTEMS MANAGEMENT, INC. 080T3 541511 $1,699,394.40 N/A
1/18/2025 HQ003424P0021 N/A CHINA'S GROWING FOOTPRINT IN AFRICA WORKSHOP AND CASE STUDIES PAMELA W. ODHIAMBO THE NATIONAL BUREAU OF ASIAN RESEARCH 0VFA2 541720 $181,461.86 NO SET ASIDE USED.
1/19/2025 HQ003422C0025 N/A ARMED FORCES RETIREMENT HOME PROFESSIONAL, ANALYTICAL, & TECHNICAL SUPPORT SERVICES AUBREY J. MCKINNEY CHIRALITY CAPITAL CONSULTING, LLC 733G9 541618 $783,653.76 NO SET ASIDE USED.
1/21/2025 HQ003424F0055 HQ003420D0006 PERFORM ANALYSIS, DESIGN, DEVELOPMENT, AND DELIVERY OF ACQ 2100 INTERMEDIATE ACQUISITION INTELLIGENCE COURSE. MICHAEL KLINE CYBERMEDIA TECHNOLOGIES, INC. 3P0K9 611710 $383,419.10 N/A
1/22/2025 HQ003420F0140 GS00Q14OADU141 ADMINISTRATIVE SUPPORT TO THE OFFICES WITHIN THE UNDERSECRETARY OF DEFENSE FOR ACQUISITION AND SUSTAINMENT. DOUGLAS J. BOORSTEIN LMI CONSULTING, LLC 8H8R0 541330 $77,387,963.09 N/A
1/24/2025 HQ003422F0061 GS35F0178X VISSION-X: COMMERCIAL SOFTWARE-AS-A-SERVICE (SAAS) APPLICATION Warren G. Arthur III HPC-COM LLC 1PSW9 511210 $871,544.01 N/A
1/26/2025 HQ003420C0036 N/A CIVILIAN DRUG-FREE WORKPLACE COLLECTIONS AND MEDICAL REVIEW OFFICER SUPPORT SERVICES LAWAN FERGUSON PEMBROOKE OCCUPATIONAL HEALTH, INC. 3ZDZ4 621511 $27,367,964.80 NO SET ASIDE USED.
1/28/2025 HQ00342290016 N/A PROTOTYPE RADAR UPGRADE KIT FOR THE PERIMETER ACQUISITION RADAR ATTACK CHARACTERIZATION SYSTEM Chersharon Y. King GENERAL RADAR CORP 830W2 N/A $365,658.96 N/A
1/30/2025 HQ00342190006 N/A PROTOTYPE PROJECT FOR SPACE SENSORS Chersharon Y. King VECTOR ATOMIC, INC. 81U56 N/A $20,856,275.00 N/A
1/30/2025 HQ003420F0073 HQ003415D0011 RESEARCH, ANALYTIC SUPPORT, ECONOMIC ANALYSIS, INFORMATION TECHNOLOGY (IT) SUPPORT, AND GOVERNANCE SUPPORT SERVICES JACQUELINE G. VERRINE AMERICAN TECHNOLOGY SOLUTIONS INTERNATIONAL CORPORATION 68PP0 541611 $9,937,174.27 N/A
1/31/2025 HQ003420F0223 HQ003415A0025 WARFIGHTER SUPPORT INTELLIGENCE SURVEILLANCE AND RECONNAISSANCE (ISR) OPERATIONS AND NATIONAL PROGRAMS SUBJECT MATTER EXPERT (SME) SUPPORT JACQUELINE G. VERRINE REDHORSE CORPORATION 4WS86 611430 $64,855,373.27 N/A
1/31/2025 HQ003421F0088 GS00Q14OADU130 TREATY COMPLIANCE SUPPORT Warren G. Arthur III SCIENCE APPLICATIONS INTERNATIONAL CORPORATION 6XWA8 541330 $5,472,066.89 N/A
1/31/2025 HQ003423F0041 47QMCA21D000G GASOLINE FLEET LEASE STEPHENIE CHARLOT ACME AUTO LEASING LLC 0TT50 532112 $933,558.00 N/A
1/31/2025 HQ003423C0015 N/A DATABASE SPECIALIST SUPPORT SERVICES KAREN A. SMITH CONCEPT PLUS, LLC 5AF73 541512 $3,856,020.48 8(A) SOLE SOURCE
1/31/2025 HQ003424F0053 HQ003418A0007 OFFICE FURNITURE STEPHENIE CHARLOT MILLERKNOLL, INC. 40636 337214 $97,262.31 N/A
1/23/2025 HQ003424F0148 HQ003423A0004 BUILDING CRITERIA BENCHMARKING WORKSHOP EARL ANDERSON LEIDOS, INC. 6B6E6 541611 $388,165.40 N/A
1/31/2025 HQ003424P0023 N/A RESOURCE AUTHENTICATION MANAGER SOFTWARE LICENSE MAINTENANCE SUPPORT KIM M. ROBINSON-LEACH SOFTWARE INFORMATION RESOURCE CORP. 1PQ53 541519 $19,927.55 NO SET ASIDE USED.
2/3/2025 HQ00342390005 N/A ENVIRONMENTAL REMEDIATION & RESTORATION ON-SITE DESCTRUCTION AND REMEDIATION OF PER- AND POLYFLUOROALKYL SUBSTANCES (PFAS) Chersharon Y. King ASRC CONSULTING & ENVIRONMENTAL SERVICES, LLC 7HCC3 N/A $5,518,196.00 N/A
2/4/2025 HQ003424P0025 N/A SPECIAL STUDIES AND ANALYSIS PAMELA W. ODHIAMBO GAIRLOCH LLC 9MAY8 541720 $89,760.00 NO SET ASIDE USED.
2/7/2025 HQ003423F0445 HQ003422D0002 INSTALL FENCE MALL RAMP MONICA ALDA BURNS DEGROOT M. C. DEAN, INC. 3K773 561621 $60,221.00 N/A
2/7/2025 HQ003421P0028 N/A RESEARCH AND STUDIES PAMELA W. ODHIAMBO STRATEVARIOUS, INC 6UWT5 541720 $850,356.95 NO SET ASIDE USED.
2/8/2025 HQ003420F0058 HQ003415A0040 STRATEGIC PLANNING SUPPORT KIM M. ROBINSON-LEACH DELOITTE CONSULTING LLP 1TTG5 541611 $15,789,645.26 N/A
2/10/2025 HQ003420F0068 NNG15SC27B DECISION LENS WEB (DLW) 3.X SOFTWARE LICENSES PETER M. POLIZZI CARAHSOFT TECHNOLOGY CORPORATION 1P3C5 541519 $1,127,969.23 N/A
2/10/2025 HQ003423F0452 HQ003422D0002 TACTICAL AWARENESS KIT SOFTWARE YOLNIE MERRIWEATHER M. C. DEAN, INC. 3K773 561621 $54,989.00 N/A
2/10/2025 HQ00342390009 N/A ENVIRONMENTAL REMEDIATION & RESTORATION ON-SITE DESCTRUCTION AND REMEDIATION OF PER- AND POLYFLUOROALKYL SUBSTANCES (PFAS) Chersharon Y. King CYCLOPURE INC 7QW88 N/A $576,452.00 N/A
2/11/2025 HQ003423F0446 HQ003422D0002 METRO RAIL PLATFORM CAMERA UPGRADE KIM M. ROBINSON-LEACH M. C. DEAN, INC. 3K773 561621 $137,700.00 N/A
2/11/2025 HQ003424F0136 HQ003423D0037 INFORMATION TECHNOLOGY SUPPORT - HARDWARE, LICENSE, AND SOFTWARE SUPPLIES KEALON D. WALLACE CCS LINTECH JV LLC 9G5X3 541512 $109,733.22 N/A
2/12/2025 HQ003419F0764 HQ003419D0025 ASSESSMENT, MONITORING, AND EVALUATION SUPPORT SERVICES. MONICA ALDA BURNS DEGROOT MANAGEMENT SYSTEMS INTERNATIONAL, INC. 1BWZ7 541990 $107,612,590.49 N/A
2/15/2025 HQ003424F0099 HQ003420D0002 SOFTWARE AS A SERVICE PLATFORM Rashida D Webb POPLICUS INCORPORATED 7DR83 541990 $16,050,000.00 N/A
2/16/2025 HQ003424F0100 HHSN316201500059W ADOBE ACROBAT PRO RONICA L SHELTON IT1 SOURCE LLC 3PGB2 541519 $29,655.28 SMALL BUSINESS SET ASIDE - TOTAL
2/20/2025 HQ003423C0147 N/A FEDERAL CREDIT PROGRAM DEVELOPMENT MANAGEMENT AND EXECUTION SUPPORT SERVICES ERIC DARBY NUVOSUM CONSULTING LLC 93HY0 541611 $1,563,716.51 8(A) SOLE SOURCE
2/22/2025 HQ003423F0496 HQ003422D0002 INTEGRATED SECURITY SERVICES CONTRACT - PROGRAMMABLE LOGIC CONTROLLERS OF INCINERATOR KIM M. ROBINSON-LEACH M. C. DEAN, INC. 3K773 561621 $357,035.00 N/A
2/22/2025 HQ003423F0493 HQ003422D0002 INTEGRATED SECURITY SERVICES CONTRACT - ACCESS GATES INSTALL KIM M. ROBINSON-LEACH M. C. DEAN, INC. 3K773 561621 $312,694.00 N/A
2/22/2025 HQ084724F0012 NNG15SD81B LEXMARK-MPS002 MANAGED PRINT SERVICES Myra M.Freeberg IGOV TECHNOLOGIES, INC. 32BQ5 541519 $146,400.00 N/A
2/24/2025 HQ003421F0459 HQ003421A0005 N2 TO BACNET BUILDING AUTOMATED SYSTEM COMMISSIONING EFFORT Myra M.Freeberg CHINOOK SYSTEMS, INC. 3D5P5 541690 $3,581,378.12 N/A
2/27/2025 HQ003423F0537 HQ003422D0002 INTEGRATED SECURITY SERVICES CONTRACT - PROCURE SILVUS HIGH GAIN ANTENNAS KIM M. ROBINSON-LEACH M. C. DEAN, INC. 3K773 561621 $39,206.00 N/A
2/28/2025 HQ003423F0536 HQ003422D0002 INTEGRATED SECURITY SERVICES CONTRACT - INSTALL SECURITY DEVICES KIM M. ROBINSON-LEACH M. C. DEAN, INC. 3K773 561621 $46,147.00 N/A
2/28/2025 HQ003423F0097 47QTCA20D00B5 GOVERNMENT VOICE AND DATA PLANS RONICA L SHELTON CELLCO PARTNERSHIP 1HWU7 517312 $24,387.96 N/A
2/28/2025 HQ003424F0110 HQ003422D0002 MAINTENANCE SOFTWARE UPDATES AND REPAIRS YOLNIE MERRIWEATHER M. C. DEAN, INC. 3K773 561621 $57,358.00 N/A
2/28/2025 HQ003421F0015 HQ003419D0001 FEDERALLY FUNDED RESEARCH AND DEVELOPMENT CENTERS PROJECTS - ESTABLISHING THE LEGAL, MORAL, AND ETHICAL (LME) CONSIDERATION INVOLVED WITH THE URBAN RECONNAISSANCE WITH SUPERVISED AUTONOMY (URSA) CAPABILITIES ELIZABETH I. VAETH INSTITUTE FOR DEFENSE ANALYSES 7A293 541990 $17,811,393.34 N/A
2/28/2025 HQ003421F0018 HQ003419D0001 FEDERALLY FUNDED RESEARCH AND DEVELOPMENTAL CENTER MAJOR PROJECT ELECTRONIC SYSTEMS INTEGRITY AND AVAILABILITY: CURRENT STATUS AND FUTURE CHALLENGES AND OPPORTUNITIES ELIZABETH I. VAETH INSTITUTE FOR DEFENSE ANALYSES 7A293 541990 $65,280,738.06 N/A
2/28/2025 HQ00342090004 N/A PHASE I: ORBITAL OUTPOST PROTOTYPE PROJECT Meghan T. Meyers NANORACKS, LLC 63HC7 N/A $28,013,007.07 N/A
3/2/2025 HQ003420F0110 HQ003415A0026 OFFICE OF INFRASTRUCTURE TECHNICAL AND ANALYTICAL SUPPORT Warren G. Arthur III AZIMUTH CORPORATION 1VA28 541611 $6,180,081.92 N/A
3/4/2025 HQ003423F0544 HQ003422D0002 INTEGRATED SECURITY SERVICES CONTRACT - CORRIDOR 2 BALLISTIC GLASS REPLACEMENT. KIM M. ROBINSON-LEACH M. C. DEAN, INC. 3K773 561621 $49,982.00 N/A
3/8/2025 HQ003423C0023 N/A PROJECT MANAGEMENT SUPPORT SERVICES KIM M. ROBINSON-LEACH DJS FINANCIAL SERVICES LLC 6WDZ2 541611 $1,085,104.80 8(A) SOLE SOURCE
3/9/2025 HQ003423F0544 HQ003422D0002 BALLISTIC GLASS PANEL YOLNIE MERRIWEATHER M. C. DEAN, INC. 3K773 561621 $56,359.00 N/A
3/9/2025 HQ003422C0039 N/A PITCHBOOK PLATFORM AUTHORIZED USERS RONICA L SHELTON PITCHBOOK DATA, INC. 77SN9 518210 $923,500.00 NO SET ASIDE USED.
3/10/2025 HQ00342090013 N/A OTHER TRANSACTION PROTOTYPE AGREEMENT FOR DESIGN OF A MOBILE REACTOR ERIN P. ESLINGER X ENERGY, LLC 6X4A1 N/A $60,457,813.00 N/A
3/10/2025 HQ003424F0135 NNG15SD79B OKTA SOFTWARE LICENSING KIM M. ROBINSON-LEACH AURORA SYSTEMS CONSULTING, INC. 4ARC1 541519 $226,225.81 N/A
3/10/2025 HQ003424F0133 HQ003420D0002 SOFTWARE AS A SERVICE PLATFORM- LICENSES Rashida D Webb POPLICUS INCORPORATED 7DR83 541990 $150,000.00 N/A
3/11/2025 HQ003424F0141 HQ003421D0010 JASON LETTER STUDY DOUGLAS.J.BOORSTEIN THE MITRE CORPORATION 7L030 541611 $82,895.00 N/A
3/12/2025 HQ003423F0586 HQ003422D0002 INSTALLATION VIDEO SURVEILLANCE YOLNIE MERRIWEATHER M. C. DEAN, INC. 3K773 561621 $34,327.00 N/A
3/14/2025 HQ003423F0564 HQ003422D0002 INTEGRATED SECURITY SERVICES CONTRACT - INSTALL GALLAGHER SOFTWARE KIM M. ROBINSON-LEACH M. C. DEAN, INC. 3K773 561621 $1,441,026.00 N/A
3/14/2025 HQ003423F0611 HQ003422D0002 INTEGRATED SECURITY SERVICES CONTRACT - INSTALL SICK LASER KIM M. ROBINSON-LEACH M. C. DEAN, INC. 3K773 561621 $435,525.00 N/A
3/14/2025 HQ003423F0605 HQ003422D0002 INTEGRATED SECURITY SERVICES CONTRACT - TEMPLE ARMY NATIONAL CENTER (TARC) PHASE 1 KIM M. ROBINSON-LEACH M. C. DEAN, INC. 3K773 561621 $696,804.00 N/A
3/14/2025 HQ003423F0564 HQ003422D0002 INTEGRATED SECURITY SERVICES CONTRACT 07052301 INSTALL GALLAGHER SOFTWARE KIM M. ROBINSON-LEACH M. C. DEAN, INC. 3K773 561621 $1,441,026.00 N/A
3/14/2025 HQ003424F0126 N0024418D0003 CELLULAR VOICE AND DATA SERVICES SUSIE LEE CELLCO PARTNERSHIP 1HWU7 517312 $90,747.30 N/A
3/14/2025 HQ003423P0021 N/A KOSIAK BUSINESS ANALYSIS REPORT LISA K. BROWN KOSIAK CONSULTING, L.L.C. 8HVM0 541720 $199,728.00 NO SET ASIDE USED.
3/15/2025 HQ003423F0583 HQ003422D0002 INSTALL SECURITY CAMERAS AT THE MARK CENTER SECURITY OPERATIONS CENTER KIM M. ROBINSON-LEACH M. C. DEAN, INC. 3K773 561621 $137,196.00 N/A
3/15/2025 HQ00342190002 N/A MULTI-ORBIT LOGISTICS VEHICLES (M-OLV) DEVELOPMENT PROTOTYPE Chersharon Y. King SKYCORP. INC. 1T6P0 N/A $2,565,781.00 N/A
3/18/2025 HQ00342090024 N/A PRODUCTION TO REPLACE SOCIUM SYSTEM ERIN P. ESLINGER (OTA) CONSORTIUM MANAGEMENT GROUP, INC. 7DJE4 N/A $49,357,771.20 N/A
3/18/2025 HQ003424F0124 47QTCA24D0044 ARTICULATE 360- TEAM MICHAEL KLINE INTERACTIVE COMMUNICATIONS SOLUTIONS GROUP, INC. 1JF41 513210 $99,374.00 N/A
3/20/2025 HQ003423F0621 HQ003422D0002 INTEGRATED SECURITY SERVICES CONTRACT - PROCURE BIOMETRICS SYSTEMS KIM M. ROBINSON-LEACH M. C. DEAN, INC. 3K773 561621 $339,292.00 N/A
3/21/2025 HQ003423F0576 HQ003422D0002 INTEGRATED SECURITY SERVICES CONTRACT - PROCURE FLOCK PERIMETER LICENSE PLATE READER SYSTEMS KIM M. ROBINSON-LEACH M. C. DEAN, INC. 3K773 561621 $64,591.00 N/A
3/21/2025 HQ003423F0474 HQ003422D0002 INTEGRATED SECURITY SERVICES CONTRACT 05232301 SUITE 12024 AND 12044, TAYLOR BUILDINGACCESS CONTROL SYSTEM, INTRUSION DETECTION SYSTEM INSTALLATION. KIM M. ROBINSON-LEACH M. C. DEAN, INC. 3K773 561621 $30,220.00 N/A
3/21/2025 HQ084724F0013 HQ084721A0002 LAUNDRY AND LINEN CLEANING SERVICE Myra M.Freeberg ARMED FORCES RECREATION CENTERS EUROPE DD329 812320 $12,000.00 NO SET ASIDE USED.
3/21/2025 HQ003423P0064 N/A GRAYKEY LICENSE SOFTWARE RENEWAL ROYA M. STERNER HEXORDIA LLC 91J82 513210 $22,189.65 SMALL BUSINESS SET ASIDE - TOTAL
3/22/2025 HQ003423F0448 HQ003422D0002 PHYSICAL ACCESS CONTROL SYSTEM KIM M. ROBINSON-LEACH M. C. DEAN, INC. 3K773 561621 $776,757.00 N/A
3/22/2025 HQ003422F0469 HQ003419D0018 PENTAGON LIBRARY CONFERENCE CENTER NEW GENERATOR KEISHA L. SIMMONS SIGNATURE RENOVATIONS LLC 5L6K4 236220 $664,796.61 N/A
3/22/2025 HQ003423F0665 HQ003422D0002 REMOVAL AND REPLACEMENT SECURITY DEVICES KIM M. ROBINSON-LEACH M. C. DEAN, INC. 3K773 561621 $49,914.00 N/A
3/23/2025 HQ003424F0157 N6600121A0026 UIPATH SOFTWARE LICENSES KAREN A. SMITH FEDRESULTS, INC. 1PAF5 518210 $144,768.00 N/A
3/24/2025 HQ003424F0163 NNG15SD73B CISCO FABRICATION SWITCH KIM M. ROBINSON-LEACH DISYS SOLUTIONS, INC. 674Q4 541519 $50,670.96 SMALL BUSINESS SET ASIDE - TOTAL
3/24/2025 HQ003424F0168 HQ003420D0002 SOFTWARE AS A SERVICE PLATFORM Rashida D Webb POPLICUS INCORPORATED 7DR83 541990 $4,650,000.00 N/A
3/24/2025 HQ003423F0686 HQ003422D0002 INTEGRATED SECURITY SERVICES CONTRACT - INSTALL ACCESS CONTROL SYSTEM AND INTRUSION DETECTION SYSTEM KIM M. ROBINSON-LEACH M. C. DEAN, INC. 3K773 561621 $34,205.00 N/A
3/24/2025 HQ003423F0643 HQ003422D0002 TURNSTILE ACCESS SYSTEM YOLNIE MERRIWEATHER M. C. DEAN, INC. 3K773 561621 $299,764.00 N/A
3/24/2025 HQ003423F0563 HQ003422D0002 LIFE CYCLE REPLACEMENT TURNSTILE YOLNIE MERRIWEATHER M. C. DEAN, INC. 3K773 561621 $62,935.00 N/A
3/25/2025 HQ003423F0744 HQ003422D0002 INSTALLATION OF PROTEST FENCE JAMES CANADY III M. C. DEAN, INC. 3K773 561621 $91,006.00 N/A
3/25/2025 HQ003423F0692 HQ003422D0002 INTEGRATED SECURITY SERVICES CONTRACT - ACCESS CONTROL SUPPORT KIM M. ROBINSON-LEACH M. C. DEAN, INC. 3K773 561621 $184,766.00 N/A
3/26/2025 HQ003424F0172 NNG15SC82B CONFLUENCE DATA CENTER SOFTWARE MAINTENANCE & ASSOCIATED PLUG-INS ERIC DARBY NEW TECH SOLUTIONS, INC. 1QN24 541519 $735,617.07 SMALL BUSINESS SET ASIDE - TOTAL
3/26/2025 HQ003423C0028 N/A EXERCISE OPTION PERIOD 1 FOR ADMINISTRATIVE SUPPORT SERVICES DAVID S. DOTY MAVEN OFS JV INC. 8PHY6 561110 $3,190,374.72 HUBZONE SOLE SOURCE
3/26/2025 HQ003420F0401 HQ003418D0017 SPECTRUM POLICY AND PROGRAMS DIRECTORATE BAND ASSESSMENT AND ELECTROMAGNETIC SPECTRUM OPERATIONS AND ELECTRONIC WARFARE TECHNICAL SUPPORT SERVICES LEANNE M. CONDREN BOOZ ALLEN HAMILTON INC. 17038 541990 $16,994,504.67 N/A
3/27/2025 HQ003423F0415 N0024418D0003 WIRELESS SERVICES LATOVA J GREENE CELLCO PARTNERSHIP 1HWU7 517312 $811,856.62 N/A
3/27/2025 HQ003423F0753 GS30F0014S CUSTOM CHASSIS PUMPER STORMY ANTHONY ROSENBAUER AMERICA, LLC 1QCZ3 336120 $974,072.00 SMALL BUSINESS SET ASIDE - TOTAL
3/27/2025 HQ003424F0175 HQ003420D0002 SOFTWARE AS A SERVICE PLATFORM SUSIE LEE POPLICUS INCORPORATED 7DR83 541990 $300,000.00 N/A
3/27/2025 HQ003423F0566 HQ003422D0002 VIDEO SURVEILLANCE SYSTEM YOLNIE MERRIWEATHER M. C. DEAN, INC. 3K773 561621 $205,306.00 N/A
3/27/2025 HQ003423F0713 HQ003422D0002 VIDEO SURVEILLANCE CAMERA UPGRADE JAMES CANADY III M. C. DEAN, INC. 3K773 561621 $40,660.00 N/A
3/28/2025 HQ003424F0178 NNG15SD42B ATLASSIAN LICENSES KIM M. ROBINSON-LEACH ARCHITECHTURE SOLUTIONS, LLC 7KEA6 541519 $89,012.45 N/A
3/28/2025 HQ003424F0147 N6600120A0022 SPLUNK SECURITY SOFTWARE LICENSE ACQUISITION SUSIE LEE CARAHSOFT TECHNOLOGY CORP. 1P3C5 511210 $71,050.00 N/A
3/29/2025 HQ003423C0040 N/A PROCUREMENT SPECIALIST SUPPORT SERVICES Steven Yang PROCUREMENT & ACQUISITION CENTER OF EXCELLENCE, LLC 70PC2 541611 $976,978.08 8(A) SOLE SOURCE
3/29/2025 HQ003421C0043 N/A COMPTROLLER EXTENSIBLE MARKUP LANGUAGE ANALYTICS SUPPORT ERIC DARBY MASSLIGHT INC 1S2R7 541511 $6,624,942.72 SMALL BUSINESS SET ASIDE - TOTAL
3/31/2025 HQ003421F0498 HQ003417D0013 ELECTRICAL PREVENTIVE MAINTENANCE SUPPORT SERVICES STEPHENIE CHARLOT M. C. DEAN, INC. 3K773 811310 $389,019.00 N/A
3/31/2025 HQ003422C0042 N/A PARKING MANAGEMENT SUPPORT SERVICES KAREN A. SMITH JASINT CONSULTING AND TECHNOLOGIES, LLC 394K8 541611 $4,108,309.32 8(A) SOLE SOURCE
3/31/2025 HQ003420C0064 N/A EDUCATING STATE LEGISLATORS ON MILITARY ISSUES SUPPORT Warren G. Arthur III NATIONAL CONFERENCE OF STATE LEGISLATURES 0EJM9 541620 $714,663.79 NO SET ASIDE USED.
3/31/2025 HQ003420C0094 N/A SECURITY COOPERATION SUPPORT SERVICES LISA K. BROWN FORGE GROUP, LLC 7XGX7 541611 $23,770,453.31 8A COMPETED
3/31/2025 HQ003424F0143 HQ003420D0002 SOFTWARE-AS-A-SERVICE PLATFORM LICENSES KIMBERLY DARBY POPLICUS INCORPORATED 7DR83 541990 $5,300,000.00 N/A
3/31/2025 HQ003424F0173 HQ003421D0008 ENVIRONMENTAL SUPPORT SERVICES STEPHENIE CHARLOT APPLIED ENVIRONMENTAL, INC. 0GR96 541620 $295,622.04 N/A
3/31/2025 HQ003424F0129 HQ003419A0004 FY24 VIRTUAL INSTRUCTOR LED TRAINING (VILT) CONTINUING EDUCATION TRAINING (CET) COURSES. KIMBERLY DARBY MANAGEMENT CONCEPTS, INC. 5J639 611430 $497,531.00 N/A
3/31/2025 HQ003424F0180 HQ003421D0008 ENVIRONMENTAL SUPPORT SERVICES STEPHENIE CHARLOT APPLIED ENVIRONMENTAL, INC. 0GR96 541620 $3,638,450.04 N/A
3/31/2025 HQ003424F0182 HQ003421D0012 PREVENTIVE MAINTENANCE FOR UNINTERRUPTIBLE POWER SUPPLY SYSTEMS STEPHENIE CHARLOT M. C. DEAN, INC. 3K773 811310 $2,697,257.52 N/A
3/31/2025 HQ003424F0183 HQ003421D0008 ENVIRONMENTAL SUPPORT SERVICES STEPHENIE CHARLOT APPLIED ENVIRONMENTAL, INC. 0GR96 541620 $455,817.96 N/A
3/31/2025 HQ003424F0184 HQ003421D0030 BUILDING OPERATIONS AND MAINTENANCE ALVINA WOODSON SERVICE SOURCE, INC 2Z880 561210 $26,900,147.71 N/A
4/4/2025 HQ003420F0003 HQ003419D0001 FEDERALLY FUNDED RESEARCH AND DEVELOPMENTAL CENTER MAJOR PROJECT ARMY FUSION CELL- ACCESS/THREAT ACTIVITY DATA ANALYTICS ELIZABETH I. VAETH INSTITUTE FOR DEFENSE ANALYSES 7A293 541990 $92,993,359.36 N/A
4/7/2025 HQ003421F0172 NNG15SD74B SECURECRT+SECUREFX BUNDLE MAINTENANCE JIMMIE J. TOLOUMU SOFTWARE INFORMATION RESOURCE CORP. 1PQ53 541519 $13,291.39 SMALL BUSINESS SET ASIDE - TOTAL
4/10/2025 HQ00342490011 N/A DEFENSE INNOVATION UNIT HYBRID SPACE ARCHITECTURE PROTOTYPE PROJECT Chersharon Y. King (OTA) GOOGLE PUBLIC SECTOR LLC 8HL11 N/A $644,000.00 N/A
4/14/2025 HQ003424F0206 HQ003419D0003 SYSTEMS ENGINEERING RESEARCH CENTER TASK 1087 JOELLE FAUCHER STEVENS INSTITUTE OF TECHNOLOGY (INC) 07069 541715 $2,248,080.08 N/A
4/14/2025 HQ003421P0057 N/A FORECASTING SUBSCRIPTION SERVICE KAREN A. SMITH RANE NETWORK INC. 8JF13 519130 $69,185.00 NO SET ASIDE USED.
4/14/2025 HQ003420F0386 47QRAA19D005H TECHNICAL, ADMINISTRATIVE, AND SUBJECT MATTER EXPERTISE SUPPORT SERVICES. Jacqueline T. Imholte JMARK SERVICES INC. 5UKA1 541611 $4,641,752.39 SMALL BUSINESS SET ASIDE - TOTAL
4/14/2025 HQ003422F0530 HQ003421D0025 DESIGN-BUILD CONSTRUCTION FOR RENOVATION OF PENTAGON SUITE 5E518-542 UNITED STATES MARINE CORPS KYLE R BLAKE SIGNATURE RENOVATIONS LLC 5L6K4 236220 $5,213,976.42 N/A
4/21/2025 HQ003422F0517 HQ003421D0024 DESIGN-BUILD CONSTRUCTION FOR RENOVATION OF 4D328-343 FOR THE UNITED STATES MARINE CORPS KYLE R BLAKE STAMPEDE VENTURES, INC. 6WK76 236220 $7,803,082.77 N/A
4/21/2025 HQ00342390002 N/A DEFENSE INNOVATION UNIT EXHALED BREATH DIAGNOSTIC PROTOTYPE PROJECT PETER M. POLIZZI OWLSTONE MEDICAL LIMITED U1AX9 N/A $5,210,664.00 N/A
4/23/2025 HQ003420C0104 N/A LEGISLATIVE RESEARCH AND BUSINESS OPERATIONS SUPPORT SERVICES Jacqueline T. Imholte ARLO SOLUTIONS L.L.C. 72UJ9 541611 $3,313,215.00 8(A) SOLE SOURCE
4/28/2025 HQ003423F0534 HQ003421D0025 DESIGN-BUILD FOR SITE R GENERATOR REPLACEMENT KYLE R BLAKE SIGNATURE RENOVATIONS LLC 5L6K4 236220 $17,167,902.00 N/A
4/30/2025 HQ003423C0053 N/A SPECIAL STUDIES AND ANALYSIS CANDACE NOEL STRATEVARIOUS INC 6UWT5 541720 $398,634.00 NO SET ASIDE USED.
4/30/2025 HQ003420F0361 47QRAA19D005H SPECIALIZED STAFF SUPPORT SERVICES, OPTION FOUR EXERCISE AUBREY J. MCKINNEY JMARK SERVICES INC. 5UKA1 541611 $7,787,441.60 SMALL BUSINESS SET ASIDE - TOTAL
4/30/2025 HQ0034219PT06 HQ0034209P001 PRODUCTION TRANSACTION FOR UNITED STATES AIR FORCE RAPID SUSTAINMENT CENTER CONDITION BASED MAINTENANCE PLUS PROGRAM OFFICE Meghan T. Meyers C3.AI, INC. 6S6K2 N/A $57,006,677.73 N/A
5/1/2025 HQ00342390003 N/A THIS INDUSTRY COMPRISES ESTABLISHMENTS PRIMARILY ENGAGED IN THE PROVISION OF PROFESSIONAL, SCIENTIFIC, OR TECHNICAL SERVICES Chersharon Y. King ASTRANIS SPACE TECHNOLOGIES CORP. 8C7C1 N/A $300,000.00 N/A
5/2/2025 HQ0034239PD14 N/A PROGRAM MANAGER (PM) SUPPORT Chersharon Y. King ANDURIL INDUSTRIES INC 85LD7 N/A $7,508,451.84 N/A
5/3/2025 HQ003419F0149 GS00F052CA EARNED VALUE MANAGEMENT SUPPORT SERVICES TO OFFICE OF PERFORMANCE ANALYSIS AND ROOT CAUSE ANALYSIS DOUGLAS J. BOORSTEIN TECOLOTE RESEARCH, INC. 0BMB0 541712 $10,446,897.65 N/A
5/11/2025 HQ00342290004 N/A NATIONAL DEFENSE R&D SERVICES PROTOTYPE Chersharon Y. King AVALANCHE ENERGY DESIGNS, INC. 8Q7S9 N/A $7,486,180.00 N/A
5/12/2025 HQ00342290003 N/A NATIONAL DEFENSE R&D SERVICES PROTOTYPE Chersharon Y. King ULTRA SAFE NUCLEAR CORPORATION - TECHNOLOGIES 88TR0 N/A $10,214,674.59 N/A
5/15/2025 HQ003423P0080 N/A ASSURANCE SOFTWARE LICENSES MICHAEL KLINE RISKONNECT, INC. 6YW01 513210 $58,400.00 NO SET ASIDE USED.
5/31/2025 HQ003422F0207 HQ003421D0002 TECHNICAL AND ENGINEERING SERVICES NIA M. HOLLOWAY MODERN TECHNOLOGY SOLUTIONS, INC. 0X988 541715 $35,210,887.54 N/A
5/31/2025 HQ003420C0084 N/A TV & RADIO MONITORING SUPPORT SERVICES KAREN A. SMITH TVEYES INC. 3X8D9 518210 $30,000.00 SMALL BUSINESS SET ASIDE - TOTAL
6/7/2025 HQ003420F0255 HQ003418D0027 UNIVERSITY AFFILIATED RESEARCH CENTER - SUPPORT FOR A STUDY AT THE UNIVERSITY OF ALASKA. DOUGLAS J. BOORSTEIN UNIVERSITY OF ALASKA FAIRBANKS 3R2B4 611310 $725,300.00 N/A
6/7/2025 HQ0034239PD15 N/A PRODUCTION OTHER TRANSACTION ORDER FOR COUNTER UNMANNED AERIAL SYSTEMS Chersharon Y. King ANDURIL INDUSTRIES INC 85LD7 N/A $4,080,000.00 N/A
6/14/2025 HQ00342290005 N/A HYBRID SPACE ARCHITECTURE PROTOTYPE PROJECT Chersharon Y. King AALYRIA TECHNOLOGIES, INC. 980Z0 N/A $22,176,369.45 N/A
6/16/2025 HQ00342190001 N/A MULTI-ORBITAL LOGISTICS VEHICLE (MOLV) DEVELOPMENT Chersharon Y. King BLUE ORIGIN LLC 5VWN7 N/A $4,885,238.00 N/A
6/16/2025 HQ003423F0631 HQ003422D0017 DESIGN-BUILD CONSTRUCTION FOR SUITE 3N100 RENOVATION KYLE R BLAKE CHEROKEE CRC, LLC 3ZWF9 236220 $17,916,503.00 N/A
6/22/2025 HQ00342390007 N/A ENVIRONMENTAL REMEDIATION & RESTORATION FROM PFAS (E2RP); PROTOTYPE Chersharon Y. King TRS GROUP INC 1TYL9 N/A $7,647,824.10 N/A
6/23/2025 HQ003422F0518 HQ003421D0020 OFFICE RENOVATION JUAN C. GOMEZ HSU DEVELOPMENT, INC. 1L1U4 236220 $7,456,632.10 N/A
6/30/2025 HQ003421F0504 HQ003417D0006 INTEGRATED SECURITY SERVICES CONTRACT - BOSCH VIDEO MANAGEMENT SYSTEM (BVMS) STORAGE KIM M. ROBINSON-LEACH M.C. DEAN, INC. 3K773 561621 $919,487.00 N/A
7/3/2025 HQ003421C0096 N/A HORIZONTAL VOICE AND DATA CABLING KYLE R BLAKE PUYENPA SERVICES, LLC 7G8Z7 236220 $23,899,195.05 8(A) SOLE SOURCE
7/5/2025 HQ00342190024 N/A DEFENSE INNOVATION UNIT (DIU) REAL INFORMATION AND EFFECTS PROTOTYPE PROJECT Chersharon Y. King VANNEVAR LABS, INC. 8FWL6 N/A $56,993,347.10 N/A
7/10/2025 HQ00342390006 N/A COLLECTING, TREATING, AND DISPOSING WASTE WATER THROUGH SEWER SYSTEMS OR SEWAGE TREATMENT FACILITIES. Chersharon Y. King GEOSYNTEC CONSULTANTS, INC. 0YYW2 N/A $3,626,918.00 N/A
7/15/2025 HQ003424F0073 HQ003422D0019 PREVENTATIVE AND CORRECTIVE MAINTENANCE AT THE PENTAGON RESERVATION STORMY ANTHONY AAA COMPLETE BUILDING SERVICES, INC. 4YAL6 238220 $48,133.80 N/A
7/19/2025 HQ003420P0106 N/A ABI/INFORM GLOBAL EDITION DATABASE SERVICE ANTHONY T STEPHENSON PROQUEST LLC 3E922 519130 $262,832.04 NO SET ASIDE USED.
7/19/2025 HQ003421P0116 N/A HARVARD MANAGE MENTOR ONLINE TRAINING LICENSE, ENTERPRISE LICENSE MICHAEL KLINE HARVARD BUSINESS SCHOOL PUBLISHING CORPORATION 48124 511210 $527,008.00 NO SET ASIDE USED.
7/20/2025 HQ0034239CC01 N/A OTHER TRANSACTION AGREEMENT FOR THE PROTOTYPE PROJECT HORIZON SCANNING DASHBOARD FOR SUSTAINABILITY AND HAZARD ASSESSMENT FOR THE OFFICE OF THE ASSISTANT SECRETARY OF DEFENSEFOR FOR ENVIRONMENT & ENERGY RESILIENCE KIMBERLY E. KOZLOWSKI CONSORTIUM MANAGEMENT GROUP, INC. 7DJE4 N/A $11,176,489.14 N/A
7/24/2025 HQ003423F0228 47QTCA19D002B SKILLSOFT PERCIPIO SOFTWARE SUBSCRIPTION KELLIE BUCK SKILLSOFT (US) LLC 1KU29 511210 $576,283.17 N/A
7/30/2025 HQ0034239PD16 N/A PRODUCTION OTHER TRANSACTION ORDER FOR COUNTER UNMANNED AERIAL SYSTEMS PETER M. POLIZZI ANDURIL INDUSTRIES INC 85LD7 N/A $2,800,000.00 N/A
7/31/2025 HQ00342390020 N/A DEFENSE INNOVATION UNIT EXHALED BREATH DIAGNOSTICS PROTOTYPE PROJECT Chersharon Y. King OHIO STATE UNIVERSITY, THE 5QH98 N/A $2,600,167.00 N/A
7/31/2025 HQ003422F0456 HQ003422D0002 INSTALL SECURITY DEVICES YOLNIE MERRIWEATHER M. C. DEAN, INC. 3K773 561621 $397,610.00 N/A
8/1/2025 HQ003421F0391 NNG15SD76B SOFTWARE LICENSE AND MAINTENANCE VMWARE ANTHONY T STEPHENSON ENTERPRISE TECHNOLOGY SOLUTIONS, INC. 62PR1 541519 $95,410.20 SMALL BUSINESS SET ASIDE - TOTAL
8/16/2025 HQ00342390008 N/A OTHER TRANSACTION AWARD FOR PROTOTYPE PROJECT ENVIRONMENTAL REMEDIATION & RESTORATION FROM PFAS (E2RP) Meghan T. Meyers ALLONNIA LLC 8MH83 N/A $1,710,623.00 N/A
8/21/2025 HQ0034229CA09 N/A OTHER TRANSACTION AGREEMENT FOR AIR-BREATHING ENGINE DESIGN AND CONTROL FOR HIGH MANEUVERABILITY AND OPERATIONAL ROBUSTNESS KIMBERLY E. KOZLOWSKI TEXAS A&M ENGINEERING EXPERIMENT STATION 0EBC6 N/A $9,021,694.00 N/A
8/27/2025 HQ003423F0515 HQ003422D0002 INTEGRATED SECURITY SERVICES CONTRACT - PRIVILEGE MANAGEMENT PROGRAM KIOSK KIM M. ROBINSON-LEACH M. C. DEAN, INC. 3K773 561621 $62,583.00 N/A
8/28/2025 HQ003423F0513 HQ003422D0002 INTEGRATED SECURITY SERVICES CONTRACT - REMOVE-REINSTALL DEVICES PERIMETER DOORS KIM M. ROBINSON-LEACH M. C. DEAN, INC. 3K773 561621 $49,753.00 N/A
8/30/2025 HQ00342390010 N/A ENVIRONMENTAL REMEDIATION & RESTORATION ON-SITE DESCTRUCTION AND REMEDIATION OF PER- AND POLYFLUOROALKYL SUBSTANCES (PFAS) Chersharon Y. King EMERGING COMPOUNDS TREATMENT TECHNOLOGIES, INC 7SEH6 N/A $1,871,585.00 N/A
8/31/2025 HQ00342390022 N/A ENHANCED GEOTHERMAL SYSTEMS Chersharon Y. King ZANSKAR GEOTHERMAL & MINERALS, INC. 8L3K1 N/A $1,500,000.00 N/A
9/10/2025 HQ00342390012 N/A ENVIRONMENTAL REMEDIATION & RESTORATION ON-SITE DESCTRUCTION AND REMEDIATION OF PER- AND POLYFLUOROALKYL SUBSTANCES (PFAS) Chersharon Y. King ARCADIS U.S., INC. 005Q6 N/A $2,171,055.00 N/A
9/11/2025 HQ00342390011 N/A ENVIRONMENTAL REMEDIATION & RESTORATION ON-SITE DESCTRUCTION AND REMEDIATION OF PER- AND POLYFLUOROALKYL SUBSTANCES (PFAS) Chersharon Y. King AQUAGGA, INC. 8GHF5 N/A $900,246.00 N/A
9/21/2025 HQ00342390014 N/A ENVIRONMENTAL REMEDIATION & RESTORATION ON-SITE DESCTRUCTION AND REMEDIATION OF PER- AND POLYFLUOROALKYL SUBSTANCES (PFAS) Chersharon Y. King GENERAL ATOMICS 4V360 N/A $2,884,784.00 N/A
9/21/2025 HQ003422F0313 NNG15SC61B SPLUNK ENTERPRISE STANDARD SUPPORT SERVICES Yudi Carmona FEDERAL RESOURCES CORPORATION 1QBT0 541519 $164,950.00 HUBZONE SET-ASIDE
9/22/2025 HQ003423F0355 NNG15SD60B F5 LOADBALANCER SECRET INTERNET PROTOCOL ROUTER LICENSE UPGRADE FOR THE DEPARTMENT OF DEFENSE OFFICE OF INSPECTOR GENERAL. LATOVA J GREENE ADVANCED COMPUTER CONCEPTS, INC. 0L850 541519 $9,968.69 SMALL BUSINESS SET ASIDE - TOTAL
9/24/2025 HQ00342390013 N/A NATIONAL DEFENSE R&D SERVICES; DEFENSE-RELATED ACTIVITIES. ENVIRONMENTAL REMEDIATION & RESTORATION FROM POLYFLUOROALKYL SUBSTANCES Chersharon Y. King (OTA) BATTELLE MEMORIAL INSTITUTE 79986 N/A $1,755,615.00 N/A
9/24/2025 HQ003422F0492 47QTCA19D002B SKILLSOFT CONTENT SOLUTION KAREN A. SMITH SKILLSOFT CORPORATION 1KU29 511210 $616,650.00 N/A
9/24/2025 HQ00342390013 N/A ENVIRONMENTAL REMEDIATION & RESTORATION FROM POLYFLUOROALKYL SUBSTANCES Chersharon Y. King BATTELLE MEMORIAL INSTITUTE 79986 N/A $1,755,615.00 N/A
9/25/2025 HQ003423F0495 HQ003419D0003 SYSTEMS ENGINEERING RESEARCH TASK DOUGLAS J. BOORSTEIN STEVENS INSTITUTE OF TECHNOLOGY (INC) 7069 541715 $594,000.00 N/A
9/26/2025 HQ003422F0338 NNG15SC73B PALO ALTO HARDWARE AND SOFTWARE MAINTENANCE Yudi Carmona FOUR LLC 4M4Z2 541519 $1,767,443.81 N/A
9/28/2025 HQ003421F0481 HQ003418D0005 RESEARCH FOR ASYMMETRIC THREATS ANALYSIS CENTER STEVIE A. KREKELBERG UNIVERSITY OF MARYLAND 0UB92 611310 $19,297,828.84 N/A
9/28/2025 HQ003424F0158 HQ003422D0002 SOFTWARE UPGRADE YOLNIE MERRIWEATHER M. C. DEAN, INC. 3K773 561621 $79,648.00 N/A
9/29/2025 HQ003422F0375 NNG15SD24B KALTURA EDUCATION PROFESSIONAL PACKAGE SOFTWARE(01EDUP-01L-EDU-PKG-3Y) Yudi Carmona TECHANAX LLC 6SM10 541519 $457,904.89 N/A
9/29/2025 HQ003422F0422 N6600119A0005 MICROSOFT 365 OFFICE LICENSES - FY2022 KEALON D. WALLACE INSIGHT PUBLIC SECTOR, INC. 06ZC1 334111 $66,798.27 N/A
9/29/2025 HQ003423F0521 47QTCA21D00DJ MYSTIC MESSAGE SERVICE-VERIZON TO ZLTECH SHARON HILTON 3RD EYE TECHNOLOGIES INC. 7VEC5 541511 $134,400.00 N/A
9/30/2025 HQ003423C0084 N/A DESIGNATED SUPPORT ENGINEER KELLIE BUCK ZL TECHNOLOGIES, INC. 67T66 513210 $1,137,821.74 NO SET ASIDE USED.
9/30/2025 HQ003421F0040 HQ003419D0001 FEDERALLY FUNDED RESEARCH AND DEVELOPMENTAL CENTER MAJOR PROJECT ANALYTIC WARGAMING TO SUPPORT DEPUTY SECRETARY OF DEFENSE ANALYTIC WORKING GROUP. ELIZABETH I. VAETH INSTITUTE FOR DEFENSE ANALYSES 7A293 541990 $103,160,715.98 N/A
9/30/2025 HQ00342090012 N/A MOBILE PROTOTYPE ERIN P. ESLINGER BWXT ADVANCED TECHNOLOGIES LLC 896V3 N/A $342,031,049.82 N/A
9/30/2025 HQ003424F0081 NNG15SC82B MICROSOFT SURFACE PRO 9 TABLETS ERIC DARBY NEW TECH SOLUTIONS, INC. 1QN24 541519 $7,661.92 N/A
10/17/2025 HQ003423F0649 HQ003421D0020 DESIGN-BUILD CONSTRUCTION UPGRADE DRY AND PREACTION SPRINKLER KYLE R BLAKE HSU DEVELOPMENT, INC. 1L1U4 236220 $5,977,069.00 N/A
10/25/2025 HQ003421F0003 HQ003419A0017 AUDIT INFRASTRUCTURE SUPPORT SERVICES KAREN A. SMITH GUIDEHOUSE INC. 1HLR9 541611 $81,714,764.41 N/A
10/27/2025 HQ003423F0619 HQ003423D0025 DESIGN JOINT CHIEF OF STAFF 2E858 CONVERSION JUAN C. GOMEZ HDR ARCHITECTURE, INC. 1QHA8 541330 $772,432.76 N/A
11/19/2025 HQ003421F0060 HQ003421D0006 DEPARTMENT OF DEFENSE AND AGENCY RESEARCH AND ANALYSIS STUDIES ON NATIONAL SECURITY ISSUES ELIZABETH I. VAETH RAND CORPORATION, THE 11578 541990 $61,479,698.00 N/A
12/15/2025 HQ003424F0142 HQ003423D0016 OCEANIA COURSE SERVICES COURTNEY APPLEWHITE HII MISSION TECHNOLOGIES CORP 3BM51 611710 $285,168.92 N/A
12/17/2025 HQ00342490010 N/A DEFENSE INNOVATION UNIT HYBRID SPACE ARCHITECTURE PROTOTYPE PROJECT Chersharon Y. King PALANTIR USG INC 51W88 N/A $226,791.05 N/A
12/19/2025 HQ0034249CC02 N/A PROTOTYPE PROJECT: CENTER FOR SUSTAINABLE CHEMISTRY AND ALTERNATIVES ASSESSMENT KIMBERLY E. KOZLOWSKI CONSORTIUM MANAGEMENT GROUP, INC. 7DJE4 N/A $199,992.53 N/A
1/25/2026 HQ003424F0003 HQ003421D0006 DEPARTMENT OF DEFENSE AND AGENCY RESEARCH AND ANALYSIS STUDIES ON NATIONAL SECURITY ISSUES ELIZABETH I. VAETH RAND CORPORATION, THE 11578 541990 $22,458,025.00 N/A
1/26/2026 HQ00342390021 N/A ENHANCED GEOTHERMAL SYSTEMS Chersharon Y. King EAVOR INC 9ANU7 N/A $3,500,000.00 N/A
2/19/2026 HQ003424F0002 HQ003419D0001 FEDERALLY FUNDED RESEARCH AND DEVELOPMENT CENTERS MAJOR PROJECT RESOURCES ANALYSES FOR THE DEPARTMENT OF DEFENSE TEST RESOURCE MANAGEMENT CENTER. ELIZABETH I. VAETH INSTITUTE FOR DEFENSE ANALYSES 7A293 541990 $79,945,251.55 N/A
2/20/2026 HQ003423F0296 HQ003422D0002 ISSC 06162305 SUSTAIN SALESFORCE SOFTWARE YOLNIE MERRIWEATHER M. C. DEAN, INC. 3K773 561621 $499,653.00 N/A
3/5/2026 HQ00342390001 N/A DEFENSE INNOVATION UNIT EXHALED BREATH DIAGNOSTIC PROTOTYPE PROJECT Chersharon Y. King DETECT-ION LLC 974H8 N/A $7,798,285.00 N/A
3/21/2026 HQ003422P0020 N/A WARRANTY-KEY CABINETS ALVINA WOODSON DELMAR ENTERPRISES, INC. 4HZL5 561621 $27,593.00 NO SET ASIDE USED.
3/28/2026 HQ003423F0007 HQ003419D0001 FEDERALLY FUNDED RESEARCH AND DEVELOPMENTAL CENTER MAJOR PROJECT ARMY FUSION CELL- ACCESS/THREAT ACTIVITY DATA ANALYTICS ELIZABETH I. VAETH INSTITUTE FOR DEFENSE ANALYSES 7A293 541990 $104,308,725.96 N/A